Time,TemperatureF,DewpointF,PressureIn,WindDirection,WindDirectionDegrees,WindSpeedMPH,WindSpeedGustMPH,Humidity,HourlyPrecipIn,Conditions,Clouds,dailyrainin,SoftwareType,DateUTC
2013-09-22 00:00:00,56.0,47.1,29.78,NNE,17,8.0,14.0,72,0.00,,---,0.04,VWS V14.00,2013-09-22 04:00:00,
2013-09-22 00:01:00,56.0,46.7,29.78,NNW,336,10.0,14.0,71,0.00,,---,0.04,VWS V14.00,2013-09-22 04:01:00,
2013-09-22 00:06:00,55.9,46.3,29.78,NE,34,8.0,11.0,70,0.00,,---,0.00,VWS V14.00,2013-09-22 04:06:00,
2013-09-22 00:11:00,55.7,46.1,29.78,West,272,1.0,13.0,70,0.00,,---,0.00,VWS V14.00,2013-09-22 04:11:00,
2013-09-22 00:12:00,55.7,45.7,29.78,NNW,343,2.0,13.0,69,0.00,,---,0.00,VWS V14.00,2013-09-22 04:12:00,
2013-09-22 00:16:00,55.7,45.7,29.77,NNW,343,1.0,13.0,69,0.00,,---,0.00,VWS V14.00,2013-09-22 04:16:00,
2013-09-22 00:17:00,55.7,45.7,29.77,NNW,343,4.0,13.0,69,0.00,,---,0.00,VWS V14.00,2013-09-22 04:17:00,
2013-09-22 00:21:00,55.6,45.6,29.77,NW,325,7.0,13.0,69,0.00,,---,0.00,VWS V14.00,2013-09-22 04:21:00,
2013-09-22 00:22:00,55.6,45.6,29.77,ENE,58,6.0,13.0,69,0.00,,---,0.00,VWS V14.00,2013-09-22 04:22:00,
2013-09-22 00:26:00,55.6,45.6,29.77,North,0,2.0,13.0,69,0.00,,---,0.00,VWS V14.00,2013-09-22 04:26:00,
2013-09-22 00:27:00,55.6,45.6,29.77,North,350,2.0,13.0,69,0.00,,---,0.00,VWS V14.00,2013-09-22 04:27:00,
2013-09-22 00:31:00,55.4,45.8,29.78,NNW,329,7.0,13.0,70,0.00,,---,0.00,VWS V14.00,2013-09-22 04:31:00,
2013-09-22 00:32:00,55.4,45.8,29.78,NNW,332,1.0,13.0,70,0.00,,---,0.00,VWS V14.00,2013-09-22 04:32:00,
2013-09-22 00:36:00,55.3,45.3,29.78,NNW,329,10.0,15.0,69,0.00,,---,0.00,VWS V14.00,2013-09-22 04:36:00,
2013-09-22 00:37:00,55.3,45.3,29.78,NW,309,13.0,15.0,69,0.00,,---,0.00,VWS V14.00,2013-09-22 04:37:00,
2013-09-22 00:38:00,55.3,45.3,29.78,NNE,20,6.0,15.0,69,0.00,,---,0.00,VWS V14.00,2013-09-22 04:38:00,
2013-09-22 00:42:00,55.1,44.7,29.78,North,349,8.0,15.0,68,0.00,,---,0.00,VWS V14.00,2013-09-22 04:42:00,
2013-09-22 00:43:00,55.0,44.3,29.78,North,7,6.0,15.0,67,0.00,,---,0.00,VWS V14.00,2013-09-22 04:43:00,
2013-09-22 00:47:00,55.0,44.3,29.78,North,0,8.0,15.0,67,0.00,,---,0.00,VWS V14.00,2013-09-22 04:47:00,
2013-09-22 00:48:00,55.0,44.3,29.78,NNW,330,8.0,15.0,67,0.00,,---,0.00,VWS V14.00,2013-09-22 04:48:00,
2013-09-22 00:52:00,54.8,44.1,29.78,North,10,9.0,18.0,67,0.00,,---,0.00,VWS V14.00,2013-09-22 04:52:00,
2013-09-22 00:53:00,54.8,44.1,29.78,North,356,1.0,18.0,67,0.00,,---,0.00,VWS V14.00,2013-09-22 04:53:00,
2013-09-22 00:57:00,54.8,44.1,29.78,North,0,2.0,18.0,67,0.00,,---,0.00,VWS V14.00,2013-09-22 04:57:00,
2013-09-22 00:58:00,54.7,44.0,29.78,North,0,6.0,18.0,67,0.00,,---,0.00,VWS V14.00,2013-09-22 04:58:00,
2013-09-22 01:02:00,54.7,44.0,29.79,NNW,344,9.0,9.0,67,0.00,,---,0.00,VWS V14.00,2013-09-22 05:02:00,
2013-09-22 01:03:00,54.7,44.0,29.79,North,0,0.0,9.0,67,0.00,,---,0.00,VWS V14.00,2013-09-22 05:03:00,
2013-09-22 01:07:00,54.7,44.0,29.79,NW,315,8.0,9.0,67,0.00,,---,0.00,VWS V14.00,2013-09-22 05:07:00,
2013-09-22 01:08:00,54.7,44.0,29.79,North,0,6.0,9.0,67,0.00,,---,0.00,VWS V14.00,2013-09-22 05:08:00,
2013-09-22 01:12:00,54.5,44.2,29.79,NW,308,7.0,9.0,68,0.00,,---,0.00,VWS V14.00,2013-09-22 05:12:00,
2013-09-22 01:13:00,54.5,44.2,29.79,NNW,344,2.0,9.0,68,0.00,,---,0.00,VWS V14.00,2013-09-22 05:13:00,
2013-09-22 01:14:00,54.5,44.2,29.79,NNW,344,2.0,9.0,68,0.00,,---,0.00,VWS V14.00,2013-09-22 05:14:00,
2013-09-22 01:18:00,54.5,44.2,29.79,North,0,0.0,9.0,68,0.00,,---,0.00,VWS V14.00,2013-09-22 05:18:00,
2013-09-22 01:19:00,54.5,44.2,29.79,North,0,0.0,9.0,68,0.00,,---,0.00,VWS V14.00,2013-09-22 05:19:00,
2013-09-22 01:23:00,54.5,44.5,29.79,North,0,4.0,9.0,69,0.00,,---,0.00,VWS V14.00,2013-09-22 05:23:00,
2013-09-22 01:24:00,54.4,44.1,29.79,North,6,7.0,9.0,68,0.00,,---,0.00,VWS V14.00,2013-09-22 05:24:00,
2013-09-22 01:28:00,54.4,44.1,29.79,North,354,7.0,9.0,68,0.00,,---,0.00,VWS V14.00,2013-09-22 05:28:00,
2013-09-22 01:29:00,54.4,44.1,29.79,NNE,27,1.0,9.0,68,0.00,,---,0.00,VWS V14.00,2013-09-22 05:29:00,
2013-09-22 01:33:00,54.2,43.9,29.79,North,0,2.0,9.0,68,0.00,,---,0.00,VWS V14.00,2013-09-22 05:33:00,
2013-09-22 01:34:00,54.2,43.9,29.79,NNE,13,4.0,9.0,68,0.00,,---,0.00,VWS V14.00,2013-09-22 05:34:00,
2013-09-22 01:35:00,54.2,43.9,29.79,NNW,339,2.0,9.0,68,0.00,,---,0.00,VWS V14.00,2013-09-22 05:35:00,
2013-09-22 01:38:00,54.2,43.9,29.79,North,0,2.0,9.0,68,0.00,,---,0.00,VWS V14.00,2013-09-22 05:38:00,
2013-09-22 01:39:00,54.2,44.3,29.79,NW,312,6.0,9.0,69,0.00,,---,0.00,VWS V14.00,2013-09-22 05:39:00,
2013-09-22 01:40:00,54.2,44.3,29.79,NW,320,4.0,9.0,69,0.00,,---,0.00,VWS V14.00,2013-09-22 05:40:00,
2013-09-22 01:43:00,54.1,44.2,29.79,NNE,13,4.0,9.0,69,0.00,,---,0.00,VWS V14.00,2013-09-22 05:43:00,
2013-09-22 01:44:00,54.1,44.2,29.79,NNE,30,0.0,9.0,69,0.00,,---,0.00,VWS V14.00,2013-09-22 05:44:00,
2013-09-22 01:45:00,54.1,44.2,29.79,NNW,335,9.0,9.0,69,0.00,,---,0.00,VWS V14.00,2013-09-22 05:45:00,
2013-09-22 01:48:00,54.1,44.2,29.80,North,0,11.0,11.0,69,0.00,,---,0.00,VWS V14.00,2013-09-22 05:48:00,
2013-09-22 01:49:00,54.1,44.2,29.80,NNW,336,4.0,11.0,69,0.00,,---,0.00,VWS V14.00,2013-09-22 05:49:00,
2013-09-22 01:50:00,54.1,44.2,29.80,NNW,346,6.0,11.0,69,0.00,,---,0.00,VWS V14.00,2013-09-22 05:50:00,
2013-09-22 01:53:00,53.9,44.0,29.80,NNE,27,0.0,11.0,69,0.00,,---,0.00,VWS V14.00,2013-09-22 05:53:00,
2013-09-22 01:54:00,53.9,44.0,29.80,NW,325,1.0,11.0,69,0.00,,---,0.00,VWS V14.00,2013-09-22 05:54:00,
2013-09-22 01:55:00,53.9,44.0,29.80,North,0,6.0,11.0,69,0.00,,---,0.00,VWS V14.00,2013-09-22 05:55:00,
2013-09-22 01:58:00,53.9,44.0,29.80,NW,323,2.0,11.0,69,0.00,,---,0.00,VWS V14.00,2013-09-22 05:58:00,
2013-09-22 01:59:00,53.9,44.0,29.80,NNW,344,4.0,11.0,69,0.00,,---,0.00,VWS V14.00,2013-09-22 05:59:00,
2013-09-22 02:00:00,53.9,44.0,29.80,NW,309,4.0,11.0,69,0.00,,---,0.00,VWS V14.00,2013-09-22 06:00:00,
2013-09-22 02:01:00,53.9,44.0,29.80,NW,320,0.0,11.0,69,0.00,,---,0.00,VWS V14.00,2013-09-22 06:01:00,
2013-09-22 02:03:00,53.9,44.0,29.80,NNW,339,2.0,11.0,69,0.00,,---,0.00,VWS V14.00,2013-09-22 06:03:00,
2013-09-22 02:04:00,53.9,44.0,29.80,North,0,2.0,11.0,69,0.00,,---,0.00,VWS V14.00,2013-09-22 06:04:00,
2013-09-22 02:05:00,53.9,44.0,29.80,North,0,2.0,11.0,69,0.00,,---,0.00,VWS V14.00,2013-09-22 06:05:00,
2013-09-22 02:06:00,53.9,44.0,29.80,NW,322,1.0,11.0,69,0.00,,---,0.00,VWS V14.00,2013-09-22 06:06:00,
2013-09-22 02:09:00,53.8,44.3,29.80,NNW,336,7.0,11.0,70,0.00,,---,0.00,VWS V14.00,2013-09-22 06:09:00,
2013-09-22 02:10:00,53.8,44.3,29.80,North,357,0.0,11.0,70,0.00,,---,0.00,VWS V14.00,2013-09-22 06:10:00,
2013-09-22 02:11:00,53.8,44.3,29.80,North,356,0.0,11.0,70,0.00,,---,0.00,VWS V14.00,2013-09-22 06:11:00,
2013-09-22 02:14:00,53.8,44.3,29.80,North,353,0.0,11.0,70,0.00,,---,0.00,VWS V14.00,2013-09-22 06:14:00,
2013-09-22 02:15:00,53.8,44.3,29.80,North,353,0.0,11.0,70,0.00,,---,0.00,VWS V14.00,2013-09-22 06:15:00,
2013-09-22 02:16:00,53.8,44.3,29.80,NW,313,0.0,11.0,70,0.00,,---,0.00,VWS V14.00,2013-09-22 06:16:00,
2013-09-22 02:19:00,53.8,44.3,29.80,NNE,13,0.0,11.0,70,0.00,,---,0.00,VWS V14.00,2013-09-22 06:19:00,
2013-09-22 02:20:00,53.8,44.3,29.80,NNE,24,0.0,11.0,70,0.00,,---,0.00,VWS V14.00,2013-09-22 06:20:00,
2013-09-22 02:21:00,53.8,44.6,29.80,NNW,340,1.0,11.0,71,0.00,,---,0.00,VWS V14.00,2013-09-22 06:21:00,
2013-09-22 02:22:00,53.8,44.6,29.80,North,6,4.0,11.0,71,0.00,,---,0.00,VWS V14.00,2013-09-22 06:22:00,
2013-09-22 02:24:00,53.6,44.4,29.80,North,10,2.0,11.0,71,0.00,,---,0.00,VWS V14.00,2013-09-22 06:24:00,
2013-09-22 02:25:00,53.6,44.4,29.80,NNE,31,2.0,11.0,71,0.00,,---,0.00,VWS V14.00,2013-09-22 06:25:00,
2013-09-22 02:26:00,53.6,44.4,29.80,North,350,4.0,11.0,71,0.00,,---,0.00,VWS V14.00,2013-09-22 06:26:00,
2013-09-22 02:27:00,53.6,44.4,29.80,NNW,347,0.0,11.0,71,0.00,,---,0.00,VWS V14.00,2013-09-22 06:27:00,
2013-09-22 02:29:00,53.6,44.4,29.80,North,353,4.0,11.0,71,0.00,,---,0.00,VWS V14.00,2013-09-22 06:29:00,
2013-09-22 02:30:00,53.6,44.4,29.81,NNW,332,4.0,11.0,71,0.00,,---,0.00,VWS V14.00,2013-09-22 06:30:00,
2013-09-22 02:31:00,53.6,44.4,29.81,NNW,332,7.0,11.0,71,0.00,,---,0.00,VWS V14.00,2013-09-22 06:31:00,
2013-09-22 02:33:00,53.5,44.3,29.81,NNW,333,4.0,11.0,71,0.00,,---,0.00,VWS V14.00,2013-09-22 06:33:00,
2013-09-22 02:34:00,53.5,44.3,29.81,WSW,251,9.0,11.0,71,0.00,,---,0.00,VWS V14.00,2013-09-22 06:34:00,
2013-09-22 02:35:00,53.5,44.3,29.81,NNW,330,7.0,11.0,71,0.00,,---,0.00,VWS V14.00,2013-09-22 06:35:00,
2013-09-22 02:36:00,53.5,44.3,29.81,ESE,103,4.0,11.0,71,0.00,,---,0.00,VWS V14.00,2013-09-22 06:36:00,
2013-09-22 02:38:00,53.3,44.2,29.81,NNE,24,7.0,11.0,71,0.00,,---,0.00,VWS V14.00,2013-09-22 06:38:00,
2013-09-22 02:39:00,53.3,43.8,29.81,ENE,68,4.0,11.0,70,0.00,,---,0.00,VWS V14.00,2013-09-22 06:39:00,
2013-09-22 02:41:00,53.3,44.2,29.81,NNW,346,9.0,11.0,71,0.00,,---,0.00,VWS V14.00,2013-09-22 06:41:00,
2013-09-22 02:43:00,53.3,43.8,29.81,NNW,339,6.0,11.0,70,0.00,,---,0.00,VWS V14.00,2013-09-22 06:43:00,
2013-09-22 02:44:00,53.2,44.0,29.81,North,10,6.0,11.0,71,0.00,,---,0.00,VWS V14.00,2013-09-22 06:44:00,
2013-09-22 02:45:00,53.2,44.0,29.81,North,0,2.0,11.0,71,0.00,,---,0.00,VWS V14.00,2013-09-22 06:45:00,
2013-09-22 02:46:00,53.2,44.0,29.81,NNW,340,2.0,11.0,71,0.00,,---,0.00,VWS V14.00,2013-09-22 06:46:00,
2013-09-22 02:48:00,53.2,44.0,29.81,North,349,4.0,11.0,71,0.00,,---,0.00,VWS V14.00,2013-09-22 06:48:00,
2013-09-22 02:49:00,53.2,43.7,29.81,NW,325,6.0,13.0,70,0.00,,---,0.00,VWS V14.00,2013-09-22 06:49:00,
2013-09-22 02:50:00,53.2,43.7,29.81,NNW,342,6.0,13.0,70,0.00,,---,0.00,VWS V14.00,2013-09-22 06:50:00,
2013-09-22 02:51:00,53.1,43.6,29.81,North,0,10.0,13.0,70,0.00,,---,0.00,VWS V14.00,2013-09-22 06:51:00,
2013-09-22 02:52:00,53.1,43.6,29.81,NNW,340,9.0,13.0,70,0.00,,---,0.00,VWS V14.00,2013-09-22 06:52:00,
2013-09-22 02:53:00,53.1,43.6,29.81,North,0,9.0,13.0,70,0.00,,---,0.00,VWS V14.00,2013-09-22 06:53:00,
2013-09-22 02:54:00,53.1,43.6,29.81,North,0,9.0,13.0,70,0.00,,---,0.00,VWS V14.00,2013-09-22 06:54:00,
2013-09-22 02:55:00,53.1,43.6,29.81,NW,320,8.0,13.0,70,0.00,,---,0.00,VWS V14.00,2013-09-22 06:55:00,
2013-09-22 02:57:00,53.1,43.6,29.81,NW,306,7.0,13.0,70,0.00,,---,0.00,VWS V14.00,2013-09-22 06:57:00,
2013-09-22 02:58:00,53.1,43.6,29.81,NNE,23,8.0,13.0,70,0.00,,---,0.00,VWS V14.00,2013-09-22 06:58:00,
2013-09-22 02:59:00,52.9,43.4,29.81,NNW,337,4.0,13.0,70,0.00,,---,0.00,VWS V14.00,2013-09-22 06:59:00,
2013-09-22 03:00:00,52.9,43.4,29.81,North,349,6.0,13.0,70,0.00,,---,0.00,VWS V14.00,2013-09-22 07:00:00,
2013-09-22 03:02:00,52.9,43.4,29.81,North,10,1.0,10.0,70,0.00,,---,0.00,VWS V14.00,2013-09-22 07:02:00,
2013-09-22 03:03:00,52.9,43.4,29.81,NNW,347,2.0,10.0,70,0.00,,---,0.00,VWS V14.00,2013-09-22 07:03:00,
2013-09-22 03:04:00,52.9,43.4,29.81,NNW,347,4.0,10.0,70,0.00,,---,0.00,VWS V14.00,2013-09-22 07:04:00,
2013-09-22 03:05:00,52.9,43.4,29.81,North,6,4.0,10.0,70,0.00,,---,0.00,VWS V14.00,2013-09-22 07:05:00,
2013-09-22 03:07:00,52.9,43.4,29.81,North,0,7.0,10.0,70,0.00,,---,0.00,VWS V14.00,2013-09-22 07:07:00,
2013-09-22 03:08:00,52.9,43.4,29.81,North,0,7.0,10.0,70,0.00,,---,0.00,VWS V14.00,2013-09-22 07:08:00,
2013-09-22 03:09:00,52.9,43.4,29.81,NNW,342,1.0,10.0,70,0.00,,---,0.00,VWS V14.00,2013-09-22 07:09:00,
2013-09-22 03:10:00,52.9,43.4,29.81,NNW,333,2.0,10.0,70,0.00,,---,0.00,VWS V14.00,2013-09-22 07:10:00,
2013-09-22 03:12:00,52.8,43.3,29.81,NNW,342,8.0,11.0,70,0.00,,---,0.00,VWS V14.00,2013-09-22 07:12:00,
2013-09-22 03:13:00,52.8,43.3,29.81,North,350,7.0,11.0,70,0.00,,---,0.00,VWS V14.00,2013-09-22 07:13:00,
2013-09-22 03:14:00,52.8,43.3,29.81,WNW,302,2.0,13.0,70,0.00,,---,0.00,VWS V14.00,2013-09-22 07:14:00,
2013-09-22 03:15:00,52.8,43.3,29.82,NNW,342,0.0,13.0,70,0.00,,---,0.00,VWS V14.00,2013-09-22 07:15:00,
2013-09-22 03:17:00,52.8,43.3,29.82,North,356,7.0,13.0,70,0.00,,---,0.00,VWS V14.00,2013-09-22 07:17:00,
2013-09-22 03:18:00,52.8,43.3,29.82,NNW,329,8.0,13.0,70,0.00,,---,0.00,VWS V14.00,2013-09-22 07:18:00,
2013-09-22 03:19:00,52.8,43.3,29.82,NNW,336,4.0,13.0,70,0.00,,---,0.00,VWS V14.00,2013-09-22 07:19:00,
2013-09-22 03:20:00,52.6,43.1,29.82,NW,318,4.0,13.0,70,0.00,,---,0.00,VWS V14.00,2013-09-22 07:20:00,
2013-09-22 03:23:00,52.6,43.1,29.82,North,0,6.0,13.0,70,0.00,,---,0.00,VWS V14.00,2013-09-22 07:23:00,
2013-09-22 03:24:00,52.6,42.7,29.82,North,357,4.0,13.0,69,0.00,,---,0.00,VWS V14.00,2013-09-22 07:24:00,
2013-09-22 03:25:00,52.6,42.7,29.82,NW,323,7.0,13.0,69,0.00,,---,0.00,VWS V14.00,2013-09-22 07:25:00,
2013-09-22 03:28:00,52.6,42.7,29.82,NNW,347,6.0,13.0,69,0.00,,---,0.00,VWS V14.00,2013-09-22 07:28:00,
2013-09-22 03:29:00,52.6,42.7,29.82,NNW,335,7.0,13.0,69,0.00,,---,0.00,VWS V14.00,2013-09-22 07:29:00,
2013-09-22 03:30:00,52.5,42.6,29.81,NW,316,8.0,13.0,69,0.00,,---,0.00,VWS V14.00,2013-09-22 07:30:00,
2013-09-22 03:33:00,52.5,42.6,29.81,NNE,17,2.0,13.0,69,0.00,,---,0.00,VWS V14.00,2013-09-22 07:33:00,
2013-09-22 03:34:00,52.5,42.6,29.81,NNW,329,0.0,13.0,69,0.00,,---,0.00,VWS V14.00,2013-09-22 07:34:00,
2013-09-22 03:35:00,52.5,42.3,29.81,NE,37,4.0,13.0,68,0.00,,---,0.00,VWS V14.00,2013-09-22 07:35:00,
2013-09-22 03:38:00,52.5,41.9,29.81,West,280,6.0,13.0,67,0.00,,---,0.00,VWS V14.00,2013-09-22 07:38:00,
2013-09-22 03:39:00,52.5,41.9,29.81,North,0,8.0,13.0,67,0.00,,---,0.00,VWS V14.00,2013-09-22 07:39:00,
2013-09-22 03:40:00,52.5,41.9,29.81,NNW,329,10.0,13.0,67,0.00,,---,0.00,VWS V14.00,2013-09-22 07:40:00,
2013-09-22 03:43:00,52.5,41.9,29.81,WNW,299,10.0,14.0,67,0.00,,---,0.00,VWS V14.00,2013-09-22 07:43:00,
2013-09-22 03:44:00,52.3,41.3,29.81,WNW,282,15.0,15.0,66,0.00,,---,0.00,VWS V14.00,2013-09-22 07:44:00,
2013-09-22 03:45:00,52.3,41.3,29.82,WNW,295,10.0,15.0,66,0.00,,---,0.00,VWS V14.00,2013-09-22 07:45:00,
2013-09-22 03:48:00,52.3,40.9,29.82,WNW,292,7.0,15.0,65,0.00,,---,0.00,VWS V14.00,2013-09-22 07:48:00,
2013-09-22 03:49:00,52.3,40.9,29.82,NW,305,9.0,15.0,65,0.00,,---,0.00,VWS V14.00,2013-09-22 07:49:00,
2013-09-22 03:50:00,52.3,40.9,29.82,WNW,298,8.0,15.0,65,0.00,,---,0.00,VWS V14.00,2013-09-22 07:50:00,
2013-09-22 03:54:00,52.3,40.9,29.82,WSW,251,7.0,15.0,65,0.00,,---,0.00,VWS V14.00,2013-09-22 07:54:00,
2013-09-22 03:55:00,52.2,40.8,29.82,West,274,11.0,15.0,65,0.00,,---,0.00,VWS V14.00,2013-09-22 07:55:00,
2013-09-22 03:56:00,52.2,40.4,29.82,NW,312,4.0,15.0,64,0.00,,---,0.00,VWS V14.00,2013-09-22 07:56:00,
2013-09-22 03:59:00,52.2,40.0,29.82,NNE,13,10.0,15.0,63,0.00,,---,0.00,VWS V14.00,2013-09-22 07:59:00,
2013-09-22 04:00:00,52.2,40.0,29.82,NW,309,4.0,15.0,63,0.00,,---,0.00,VWS V14.00,2013-09-22 08:00:00,
2013-09-22 04:01:00,52.2,40.0,29.82,North,0,7.0,7.0,63,0.00,,---,0.00,VWS V14.00,2013-09-22 08:01:00,
2013-09-22 04:04:00,52.2,40.4,29.82,NW,320,7.0,9.0,64,0.00,,---,0.00,VWS V14.00,2013-09-22 08:04:00,
2013-09-22 04:05:00,52.2,40.4,29.82,WNW,287,6.0,9.0,64,0.00,,---,0.00,VWS V14.00,2013-09-22 08:05:00,
2013-09-22 04:06:00,52.2,40.4,29.82,WNW,292,10.0,10.0,64,0.00,,---,0.00,VWS V14.00,2013-09-22 08:06:00,
2013-09-22 04:09:00,52.3,40.5,29.82,North,0,10.0,17.0,64,0.00,,---,0.00,VWS V14.00,2013-09-22 08:09:00,
2013-09-22 04:10:00,52.2,40.4,29.82,NNW,339,10.0,17.0,64,0.00,,---,0.00,VWS V14.00,2013-09-22 08:10:00,
2013-09-22 04:11:00,52.2,40.4,29.82,North,0,10.0,18.0,64,0.00,,---,0.00,VWS V14.00,2013-09-22 08:11:00,
2013-09-22 04:14:00,52.2,40.0,29.82,WNW,302,6.0,18.0,63,0.00,,---,0.00,VWS V14.00,2013-09-22 08:14:00,
2013-09-22 04:15:00,52.2,40.0,29.82,WSW,251,1.0,18.0,63,0.00,,---,0.00,VWS V14.00,2013-09-22 08:15:00,
2013-09-22 04:16:00,52.2,40.0,29.82,NW,304,8.0,18.0,63,0.00,,---,0.00,VWS V14.00,2013-09-22 08:16:00,
2013-09-22 04:19:00,52.2,40.0,29.82,WNW,294,10.0,18.0,63,0.00,,---,0.00,VWS V14.00,2013-09-22 08:19:00,
2013-09-22 04:20:00,52.2,40.0,29.82,WNW,284,4.0,18.0,63,0.00,,---,0.00,VWS V14.00,2013-09-22 08:20:00,
2013-09-22 04:21:00,52.2,40.0,29.82,North,0,6.0,18.0,63,0.00,,---,0.00,VWS V14.00,2013-09-22 08:21:00,
2013-09-22 04:22:00,52.2,40.4,29.82,WNW,295,6.0,18.0,64,0.00,,---,0.00,VWS V14.00,2013-09-22 08:22:00,
2013-09-22 04:24:00,52.0,39.8,29.82,North,0,2.0,18.0,63,0.00,,---,0.00,VWS V14.00,2013-09-22 08:24:00,
2013-09-22 04:25:00,52.0,39.8,29.82,NW,316,10.0,18.0,63,0.00,,---,0.00,VWS V14.00,2013-09-22 08:25:00,
2013-09-22 04:26:00,52.0,39.8,29.82,North,0,1.0,18.0,63,0.00,,---,0.00,VWS V14.00,2013-09-22 08:26:00,
2013-09-22 04:27:00,52.0,39.8,29.82,NNW,329,9.0,18.0,63,0.00,,---,0.00,VWS V14.00,2013-09-22 08:27:00,
2013-09-22 04:29:00,52.0,39.8,29.82,North,0,1.0,18.0,63,0.00,,---,0.00,VWS V14.00,2013-09-22 08:29:00,
2013-09-22 04:30:00,52.0,39.8,29.82,NW,325,13.0,18.0,63,0.00,,---,0.00,VWS V14.00,2013-09-22 08:30:00,
2013-09-22 04:31:00,52.0,39.8,29.82,North,7,10.0,18.0,63,0.00,,---,0.00,VWS V14.00,2013-09-22 08:31:00,
2013-09-22 04:32:00,52.0,39.8,29.82,North,357,7.0,18.0,63,0.00,,---,0.00,VWS V14.00,2013-09-22 08:32:00,
2013-09-22 04:34:00,51.9,39.7,29.82,NNW,340,7.0,18.0,63,0.00,,---,0.00,VWS V14.00,2013-09-22 08:34:00,
2013-09-22 04:35:00,51.9,39.7,29.82,NNW,329,8.0,18.0,63,0.00,,---,0.00,VWS V14.00,2013-09-22 08:35:00,
2013-09-22 04:36:00,51.9,39.3,29.82,NNW,340,0.0,18.0,62,0.00,,---,0.00,VWS V14.00,2013-09-22 08:36:00,
2013-09-22 04:37:00,51.9,39.3,29.82,North,0,4.0,18.0,62,0.00,,---,0.00,VWS V14.00,2013-09-22 08:37:00,
2013-09-22 04:39:00,51.9,39.7,29.82,North,0,0.0,18.0,63,0.00,,---,0.00,VWS V14.00,2013-09-22 08:39:00,
2013-09-22 04:40:00,51.9,39.7,29.82,North,354,4.0,18.0,63,0.00,,---,0.00,VWS V14.00,2013-09-22 08:40:00,
2013-09-22 04:41:00,51.9,39.7,29.82,NW,323,1.0,18.0,63,0.00,,---,0.00,VWS V14.00,2013-09-22 08:41:00,
2013-09-22 04:42:00,51.9,39.7,29.82,NW,312,0.0,18.0,63,0.00,,---,0.00,VWS V14.00,2013-09-22 08:42:00,
2013-09-22 04:44:00,51.9,39.7,29.82,NW,326,1.0,18.0,63,0.00,,---,0.00,VWS V14.00,2013-09-22 08:44:00,
2013-09-22 04:45:00,51.9,39.7,29.82,NNW,336,0.0,18.0,63,0.00,,---,0.00,VWS V14.00,2013-09-22 08:45:00,
2013-09-22 04:46:00,51.9,40.1,29.82,NW,315,1.0,18.0,64,0.00,,---,0.00,VWS V14.00,2013-09-22 08:46:00,
2013-09-22 04:48:00,51.9,40.1,29.82,NNW,347,4.0,18.0,64,0.00,,---,0.00,VWS V14.00,2013-09-22 08:48:00,
2013-09-22 04:50:00,51.7,39.9,29.82,NNW,339,0.0,18.0,64,0.00,,---,0.00,VWS V14.00,2013-09-22 08:50:00,
2013-09-22 04:52:00,51.7,39.9,29.82,NNW,340,0.0,18.0,64,0.00,,---,0.00,VWS V14.00,2013-09-22 08:52:00,
2013-09-22 04:53:00,51.7,39.9,29.82,NNW,329,4.0,18.0,64,0.00,,---,0.00,VWS V14.00,2013-09-22 08:53:00,
2013-09-22 04:55:00,51.7,39.9,29.82,NNW,329,0.0,18.0,64,0.00,,---,0.00,VWS V14.00,2013-09-22 08:55:00,
2013-09-22 04:57:00,51.7,39.9,29.82,NNW,329,1.0,18.0,64,0.00,,---,0.00,VWS V14.00,2013-09-22 08:57:00,
2013-09-22 04:58:00,51.6,39.8,29.82,NNE,17,4.0,18.0,64,0.00,,---,0.00,VWS V14.00,2013-09-22 08:58:00,
2013-09-22 05:00:00,51.6,39.8,29.83,NW,312,0.0,18.0,64,0.00,,---,0.00,VWS V14.00,2013-09-22 09:00:00,
2013-09-22 05:02:00,51.6,39.8,29.83,NW,312,0.0,0.0,64,0.00,,---,0.00,VWS V14.00,2013-09-22 09:02:00,
2013-09-22 05:03:00,51.6,39.8,29.83,NNW,342,4.0,4.0,64,0.00,,---,0.00,VWS V14.00,2013-09-22 09:03:00,
2013-09-22 05:05:00,51.6,40.2,29.83,NNW,347,4.0,8.0,65,0.00,,---,0.00,VWS V14.00,2013-09-22 09:05:00,
2013-09-22 05:07:00,51.6,39.8,29.83,NNE,20,4.0,10.0,64,0.00,,---,0.00,VWS V14.00,2013-09-22 09:07:00,
2013-09-22 05:08:00,51.4,39.7,29.83,NNE,20,0.0,10.0,64,0.00,,---,0.00,VWS V14.00,2013-09-22 09:08:00,
2013-09-22 05:10:00,51.4,40.0,29.83,NNW,329,0.0,10.0,65,0.00,,---,0.00,VWS V14.00,2013-09-22 09:10:00,
2013-09-22 05:12:00,51.4,40.0,29.83,NNW,329,0.0,10.0,65,0.00,,---,0.00,VWS V14.00,2013-09-22 09:12:00,
2013-09-22 05:14:00,51.4,40.0,29.83,NW,326,0.0,10.0,65,0.00,,---,0.00,VWS V14.00,2013-09-22 09:14:00,
2013-09-22 05:15:00,51.4,40.0,29.83,NNW,336,2.0,10.0,65,0.00,,---,0.00,VWS V14.00,2013-09-22 09:15:00,
2013-09-22 05:17:00,51.4,40.0,29.83,NNE,17,6.0,10.0,65,0.00,,---,0.00,VWS V14.00,2013-09-22 09:17:00,
2013-09-22 05:19:00,51.4,40.0,29.83,NW,316,4.0,10.0,65,0.00,,---,0.00,VWS V14.00,2013-09-22 09:19:00,
2013-09-22 05:20:00,51.4,40.0,29.83,NW,316,4.0,10.0,65,0.00,,---,0.00,VWS V14.00,2013-09-22 09:20:00,
2013-09-22 05:21:00,51.4,40.0,29.83,NW,316,4.0,10.0,65,0.00,,---,0.00,VWS V14.00,2013-09-22 09:21:00,
2013-09-22 05:22:00,51.4,40.0,29.83,NW,323,2.0,10.0,65,0.00,,---,0.00,VWS V14.00,2013-09-22 09:22:00,
2013-09-22 05:23:00,51.4,40.0,29.83,NNW,333,7.0,10.0,65,0.00,,---,0.00,VWS V14.00,2013-09-22 09:23:00,
2013-09-22 05:25:00,51.4,40.0,29.83,NNW,339,1.0,10.0,65,0.00,,---,0.00,VWS V14.00,2013-09-22 09:25:00,
2013-09-22 05:26:00,51.4,40.0,29.83,NNW,344,7.0,10.0,65,0.00,,---,0.00,VWS V14.00,2013-09-22 09:26:00,
2013-09-22 05:27:00,51.3,40.0,29.83,NNW,340,4.0,10.0,65,0.00,,---,0.00,VWS V14.00,2013-09-22 09:27:00,
2013-09-22 05:28:00,51.3,40.0,29.83,North,0,2.0,10.0,65,0.00,,---,0.00,VWS V14.00,2013-09-22 09:28:00,
2013-09-22 05:30:00,51.3,40.0,29.83,North,0,0.0,10.0,65,0.00,,---,0.00,VWS V14.00,2013-09-22 09:30:00,
2013-09-22 05:31:00,51.3,40.0,29.83,NW,319,4.0,10.0,65,0.00,,---,0.00,VWS V14.00,2013-09-22 09:31:00,
2013-09-22 05:32:00,51.3,40.0,29.83,WNW,294,9.0,10.0,65,0.00,,---,0.00,VWS V14.00,2013-09-22 09:32:00,
2013-09-22 05:33:00,51.3,40.0,29.83,NNE,16,6.0,10.0,65,0.00,,---,0.00,VWS V14.00,2013-09-22 09:33:00,
2013-09-22 05:35:00,51.3,40.0,29.83,North,357,2.0,10.0,65,0.00,,---,0.00,VWS V14.00,2013-09-22 09:35:00,
2013-09-22 05:36:00,51.3,40.0,29.83,North,357,0.0,10.0,65,0.00,,---,0.00,VWS V14.00,2013-09-22 09:36:00,
2013-09-22 05:37:00,51.3,40.0,29.83,North,353,0.0,10.0,65,0.00,,---,0.00,VWS V14.00,2013-09-22 09:37:00,
2013-09-22 05:38:00,51.3,40.0,29.83,North,0,1.0,10.0,65,0.00,,---,0.00,VWS V14.00,2013-09-22 09:38:00,
2013-09-22 05:40:00,51.3,40.0,29.83,NW,305,4.0,10.0,65,0.00,,---,0.00,VWS V14.00,2013-09-22 09:40:00,
2013-09-22 05:41:00,51.3,40.3,29.83,NW,305,4.0,10.0,66,0.00,,---,0.00,VWS V14.00,2013-09-22 09:41:00,
2013-09-22 05:42:00,51.3,40.3,29.83,NW,311,2.0,10.0,66,0.00,,---,0.00,VWS V14.00,2013-09-22 09:42:00,
2013-09-22 05:43:00,51.3,40.3,29.83,NW,315,4.0,10.0,66,0.00,,---,0.00,VWS V14.00,2013-09-22 09:43:00,
2013-09-22 05:46:00,51.3,40.3,29.84,NW,315,0.0,10.0,66,0.00,,---,0.00,VWS V14.00,2013-09-22 09:46:00,
2013-09-22 05:47:00,51.3,40.7,29.84,NNW,333,0.0,10.0,67,0.00,,---,0.00,VWS V14.00,2013-09-22 09:47:00,
2013-09-22 05:48:00,51.3,40.7,29.84,NNW,332,2.0,10.0,67,0.00,,---,0.00,VWS V14.00,2013-09-22 09:48:00,
2013-09-22 05:51:00,51.3,40.7,29.84,WNW,295,0.0,10.0,67,0.00,,---,0.00,VWS V14.00,2013-09-22 09:51:00,
2013-09-22 05:52:00,51.3,40.7,29.84,NW,325,1.0,10.0,67,0.00,,---,0.00,VWS V14.00,2013-09-22 09:52:00,
2013-09-22 05:53:00,51.3,40.7,29.84,NW,322,2.0,10.0,67,0.00,,---,0.00,VWS V14.00,2013-09-22 09:53:00,
2013-09-22 05:56:00,51.3,40.7,29.84,NNW,336,4.0,10.0,67,0.00,,---,0.00,VWS V14.00,2013-09-22 09:56:00,
2013-09-22 05:57:00,51.3,40.7,29.84,NW,313,4.0,10.0,67,0.00,,---,0.00,VWS V14.00,2013-09-22 09:57:00,
2013-09-22 05:58:00,51.3,40.7,29.84,NW,313,1.0,10.0,67,0.00,,---,0.00,VWS V14.00,2013-09-22 09:58:00,
2013-09-22 06:01:00,51.1,40.9,29.84,North,349,4.0,4.0,68,0.00,,---,0.00,VWS V14.00,2013-09-22 10:01:00,
2013-09-22 06:02:00,51.1,40.9,29.84,NW,304,0.0,4.0,68,0.00,,---,0.00,VWS V14.00,2013-09-22 10:02:00,
2013-09-22 06:03:00,51.1,40.9,29.84,NNW,344,8.0,9.0,68,0.00,,---,0.00,VWS V14.00,2013-09-22 10:03:00,
2013-09-22 06:06:00,51.1,40.9,29.84,North,349,2.0,9.0,68,0.00,,---,0.00,VWS V14.00,2013-09-22 10:06:00,
2013-09-22 06:07:00,51.1,41.3,29.84,NNW,344,0.0,9.0,69,0.00,,---,0.00,VWS V14.00,2013-09-22 10:07:00,
2013-09-22 06:08:00,51.1,41.3,29.84,NW,322,6.0,9.0,69,0.00,,---,0.00,VWS V14.00,2013-09-22 10:08:00,
2013-09-22 06:11:00,51.1,41.3,29.84,NNW,332,1.0,9.0,69,0.00,,---,0.00,VWS V14.00,2013-09-22 10:11:00,
2013-09-22 06:12:00,51.1,41.3,29.84,NW,320,6.0,9.0,69,0.00,,---,0.00,VWS V14.00,2013-09-22 10:12:00,
2013-09-22 06:13:00,51.1,41.3,29.84,NW,325,0.0,9.0,69,0.00,,---,0.00,VWS V14.00,2013-09-22 10:13:00,
2013-09-22 06:16:00,51.0,41.6,29.85,NW,320,0.0,9.0,70,0.00,,---,0.00,VWS V14.00,2013-09-22 10:16:00,
2013-09-22 06:17:00,51.0,41.6,29.85,NW,320,6.0,9.0,70,0.00,,---,0.00,VWS V14.00,2013-09-22 10:17:00,
2013-09-22 06:18:00,51.0,41.6,29.85,NW,308,4.0,9.0,70,0.00,,---,0.00,VWS V14.00,2013-09-22 10:18:00,
2013-09-22 06:19:00,51.0,41.6,29.85,NW,309,1.0,9.0,70,0.00,,---,0.00,VWS V14.00,2013-09-22 10:19:00,
2013-09-22 06:21:00,51.0,41.6,29.85,NNW,339,0.0,9.0,70,0.00,,---,0.00,VWS V14.00,2013-09-22 10:21:00,
2013-09-22 06:22:00,51.0,41.6,29.85,NNW,339,2.0,9.0,70,0.00,,---,0.00,VWS V14.00,2013-09-22 10:22:00,
2013-09-22 06:23:00,51.0,41.9,29.85,NNW,339,1.0,9.0,71,0.00,,---,0.00,VWS V14.00,2013-09-22 10:23:00,
2013-09-22 06:24:00,51.0,41.9,29.85,NNW,340,1.0,9.0,71,0.00,,---,0.00,VWS V14.00,2013-09-22 10:24:00,
2013-09-22 06:27:00,51.0,41.9,29.85,NNW,344,4.0,9.0,71,0.00,,---,0.00,VWS V14.00,2013-09-22 10:27:00,
2013-09-22 06:28:00,51.0,41.9,29.85,NNW,346,0.0,9.0,71,0.00,,---,0.00,VWS V14.00,2013-09-22 10:28:00,
2013-09-22 06:29:00,51.0,41.9,29.85,North,0,2.0,9.0,71,0.00,,---,0.00,VWS V14.00,2013-09-22 10:29:00,
2013-09-22 06:32:00,50.8,42.1,29.85,NW,322,4.0,9.0,72,0.00,,---,0.00,VWS V14.00,2013-09-22 10:32:00,
2013-09-22 06:33:00,50.8,42.1,29.85,NNW,332,6.0,9.0,72,0.00,,---,0.00,VWS V14.00,2013-09-22 10:33:00,
2013-09-22 06:34:00,50.8,42.1,29.85,North,354,4.0,9.0,72,0.00,,---,0.00,VWS V14.00,2013-09-22 10:34:00,
2013-09-22 06:37:00,50.7,42.0,29.85,NNW,339,10.0,10.0,72,0.00,,---,0.00,VWS V14.00,2013-09-22 10:37:00,
2013-09-22 06:38:00,50.7,42.0,29.85,North,3,2.0,10.0,72,0.00,,---,0.00,VWS V14.00,2013-09-22 10:38:00,
2013-09-22 06:39:00,50.7,42.0,29.85,North,0,2.0,10.0,72,0.00,,---,0.00,VWS V14.00,2013-09-22 10:39:00,
2013-09-22 06:42:00,50.5,41.8,29.85,North,0,6.0,10.0,72,0.00,,---,0.00,VWS V14.00,2013-09-22 10:42:00,
2013-09-22 06:43:00,50.5,41.8,29.85,North,0,4.0,10.0,72,0.00,,---,0.00,VWS V14.00,2013-09-22 10:43:00,
2013-09-22 06:44:00,50.5,42.2,29.85,North,0,6.0,10.0,73,0.00,,---,0.00,VWS V14.00,2013-09-22 10:44:00,
2013-09-22 06:47:00,50.5,42.2,29.85,North,0,0.0,10.0,73,0.00,,---,0.00,VWS V14.00,2013-09-22 10:47:00,
2013-09-22 06:48:00,50.5,42.2,29.85,North,0,4.0,10.0,73,0.00,,---,0.00,VWS V14.00,2013-09-22 10:48:00,
2013-09-22 06:49:00,50.5,42.2,29.85,North,0,2.0,10.0,73,0.00,,---,0.00,VWS V14.00,2013-09-22 10:49:00,
2013-09-22 06:50:00,50.5,42.2,29.85,North,0,4.0,10.0,73,0.00,,---,0.00,VWS V14.00,2013-09-22 10:50:00,
2013-09-22 06:52:00,50.4,42.1,29.85,NNW,344,0.0,10.0,73,0.00,,---,0.00,VWS V14.00,2013-09-22 10:52:00,
2013-09-22 06:53:00,50.4,42.1,29.85,North,0,7.0,10.0,73,0.00,,---,0.00,VWS V14.00,2013-09-22 10:53:00,
2013-09-22 06:58:00,50.4,42.1,29.85,NW,325,1.0,10.0,73,0.00,,---,0.00,VWS V14.00,2013-09-22 10:58:00,
2013-09-22 06:59:00,50.4,42.1,29.85,North,350,4.0,10.0,73,0.00,,---,0.00,VWS V14.00,2013-09-22 10:59:00,
2013-09-22 07:03:00,50.4,42.1,29.86,NNE,27,1.0,1.0,73,0.00,,---,0.00,VWS V14.00,2013-09-22 11:03:00,
2013-09-22 07:04:00,50.4,42.1,29.86,North,356,8.0,8.0,73,0.00,,---,0.00,VWS V14.00,2013-09-22 11:04:00,
2013-09-22 07:08:00,50.2,42.2,29.86,NW,326,0.0,8.0,74,0.00,,---,0.00,VWS V14.00,2013-09-22 11:08:00,
2013-09-22 07:09:00,50.2,42.2,29.86,NW,326,0.0,8.0,74,0.00,,---,0.00,VWS V14.00,2013-09-22 11:09:00,
2013-09-22 07:14:00,50.2,42.2,29.86,NNW,340,0.0,8.0,74,0.00,,---,0.00,VWS V14.00,2013-09-22 11:14:00,
2013-09-22 07:19:00,50.2,42.2,29.87,North,0,0.0,8.0,74,0.00,,---,0.00,VWS V14.00,2013-09-22 11:19:00,
2013-09-22 07:24:00,50.2,42.6,29.87,North,0,0.0,8.0,75,0.00,,---,0.00,VWS V14.00,2013-09-22 11:24:00,
2013-09-22 07:29:00,50.1,42.5,29.87,NNW,344,0.0,8.0,75,0.00,,---,0.00,VWS V14.00,2013-09-22 11:29:00,
2013-09-22 07:30:00,50.1,42.5,29.87,NNW,344,0.0,8.0,75,0.00,,---,0.00,VWS V14.00,2013-09-22 11:30:00,
2013-09-22 07:34:00,50.1,42.5,29.87,North,0,0.0,8.0,75,0.00,,---,0.00,VWS V14.00,2013-09-22 11:34:00,
2013-09-22 07:35:00,50.1,42.5,29.87,NW,318,0.0,8.0,75,0.00,,---,0.00,VWS V14.00,2013-09-22 11:35:00,
2013-09-22 07:39:00,49.9,42.3,29.87,NW,323,4.0,8.0,75,0.00,,---,0.00,VWS V14.00,2013-09-22 11:39:00,
2013-09-22 07:40:00,49.9,42.3,29.87,NNW,346,2.0,8.0,75,0.00,,---,0.00,VWS V14.00,2013-09-22 11:40:00,
2013-09-22 07:41:00,49.9,42.3,29.87,NW,325,2.0,8.0,75,0.00,,---,0.00,VWS V14.00,2013-09-22 11:41:00,
2013-09-22 07:44:00,49.9,42.3,29.87,NW,305,2.0,8.0,75,0.00,,---,0.00,VWS V14.00,2013-09-22 11:44:00,
2013-09-22 07:45:00,49.9,42.3,29.87,NW,305,0.0,8.0,75,0.00,,---,0.00,VWS V14.00,2013-09-22 11:45:00,
2013-09-22 07:46:00,49.9,42.3,29.88,NW,312,6.0,8.0,75,0.00,,---,0.00,VWS V14.00,2013-09-22 11:46:00,
2013-09-22 07:49:00,49.9,42.3,29.88,WNW,301,0.0,8.0,75,0.00,,---,0.00,VWS V14.00,2013-09-22 11:49:00,
2013-09-22 07:50:00,49.9,42.3,29.88,North,353,0.0,8.0,75,0.00,,---,0.00,VWS V14.00,2013-09-22 11:50:00,
2013-09-22 07:51:00,49.9,42.3,29.88,WNW,291,6.0,8.0,75,0.00,,---,0.00,VWS V14.00,2013-09-22 11:51:00,
2013-09-22 07:54:00,49.8,42.2,29.88,NW,319,2.0,8.0,75,0.00,,---,0.00,VWS V14.00,2013-09-22 11:54:00,
2013-09-22 07:55:00,49.8,42.2,29.88,NNW,335,2.0,8.0,75,0.00,,---,0.00,VWS V14.00,2013-09-22 11:55:00,
2013-09-22 07:56:00,49.8,42.2,29.88,North,7,4.0,8.0,75,0.00,,---,0.00,VWS V14.00,2013-09-22 11:56:00,
2013-09-22 07:59:00,49.6,42.0,29.88,NNW,346,0.0,8.0,75,0.00,,---,0.00,VWS V14.00,2013-09-22 11:59:00,
2013-09-22 08:00:00,49.6,42.0,29.88,NNW,340,2.0,8.0,75,0.00,,---,0.00,VWS V14.00,2013-09-22 12:00:00,
2013-09-22 08:01:00,49.6,42.0,29.88,NNW,337,2.0,2.0,75,0.00,,---,0.00,VWS V14.00,2013-09-22 12:01:00,
2013-09-22 08:02:00,49.6,42.0,29.88,NNW,335,0.0,4.0,75,0.00,,---,0.00,VWS V14.00,2013-09-22 12:02:00,
2013-09-22 08:04:00,49.6,42.0,29.88,NNW,335,0.0,4.0,75,0.00,,---,0.00,VWS V14.00,2013-09-22 12:04:00,
2013-09-22 08:05:00,49.6,42.0,29.88,NNW,335,0.0,4.0,75,0.00,,---,0.00,VWS V14.00,2013-09-22 12:05:00,
2013-09-22 08:06:00,49.6,42.4,29.88,NW,325,6.0,6.0,76,0.00,,---,0.00,VWS V14.00,2013-09-22 12:06:00,
2013-09-22 08:07:00,49.5,42.3,29.88,NNW,329,1.0,6.0,76,0.00,,---,0.00,VWS V14.00,2013-09-22 12:07:00,
2013-09-22 08:09:00,49.5,42.3,29.88,NNW,344,2.0,6.0,76,0.00,,---,0.00,VWS V14.00,2013-09-22 12:09:00,
2013-09-22 08:10:00,49.5,42.3,29.88,North,357,2.0,6.0,76,0.00,,---,0.00,VWS V14.00,2013-09-22 12:10:00,
2013-09-22 08:11:00,49.5,42.3,29.88,North,357,2.0,6.0,76,0.00,,---,0.00,VWS V14.00,2013-09-22 12:11:00,
2013-09-22 08:12:00,49.4,42.2,29.88,North,0,0.0,6.0,76,0.00,,---,0.00,VWS V14.00,2013-09-22 12:12:00,
2013-09-22 08:14:00,49.4,42.2,29.88,NNW,344,0.0,6.0,76,0.00,,---,0.00,VWS V14.00,2013-09-22 12:14:00,
2013-09-22 08:15:00,49.4,42.2,29.88,NNW,344,0.0,6.0,76,0.00,,---,0.00,VWS V14.00,2013-09-22 12:15:00,
2013-09-22 08:16:00,49.4,42.2,29.89,NNW,344,0.0,6.0,76,0.00,,---,0.00,VWS V14.00,2013-09-22 12:16:00,
2013-09-22 08:17:00,49.2,42.0,29.89,NW,326,4.0,8.0,76,0.00,,---,0.00,VWS V14.00,2013-09-22 12:17:00,
2013-09-22 08:19:00,49.2,42.0,29.89,NNW,329,1.0,8.0,76,0.00,,---,0.00,VWS V14.00,2013-09-22 12:19:00,
2013-09-22 08:20:00,49.2,42.0,29.89,NNW,329,2.0,8.0,76,0.00,,---,0.00,VWS V14.00,2013-09-22 12:20:00,
2013-09-22 08:21:00,49.2,42.0,29.89,NNW,329,0.0,8.0,76,0.00,,---,0.00,VWS V14.00,2013-09-22 12:21:00,
2013-09-22 08:22:00,49.1,41.9,29.89,NNW,329,0.0,8.0,76,0.00,,---,0.00,VWS V14.00,2013-09-22 12:22:00,
2013-09-22 08:24:00,49.1,41.9,29.89,NNW,329,0.0,8.0,76,0.00,,---,0.00,VWS V14.00,2013-09-22 12:24:00,
2013-09-22 08:25:00,49.1,41.9,29.89,NNW,329,1.0,8.0,76,0.00,,---,0.00,VWS V14.00,2013-09-22 12:25:00,
2013-09-22 08:26:00,49.1,41.9,29.89,NNW,330,0.0,8.0,76,0.00,,---,0.00,VWS V14.00,2013-09-22 12:26:00,
2013-09-22 08:27:00,49.1,41.9,29.89,NNW,330,0.0,8.0,76,0.00,,---,0.00,VWS V14.00,2013-09-22 12:27:00,
2013-09-22 08:28:00,49.1,41.9,29.89,NW,326,4.0,8.0,76,0.00,,---,0.00,VWS V14.00,2013-09-22 12:28:00,
2013-09-22 08:29:00,48.9,41.7,29.89,NW,312,0.0,8.0,76,0.00,,---,0.00,VWS V14.00,2013-09-22 12:29:00,
2013-09-22 08:30:00,48.9,41.7,29.89,NW,312,0.0,8.0,76,0.00,,---,0.00,VWS V14.00,2013-09-22 12:30:00,
2013-09-22 08:31:00,48.9,41.7,29.89,North,353,0.0,8.0,76,0.00,,---,0.00,VWS V14.00,2013-09-22 12:31:00,
2013-09-22 08:32:00,48.9,41.7,29.89,North,350,0.0,8.0,76,0.00,,---,0.00,VWS V14.00,2013-09-22 12:32:00,
2013-09-22 08:33:00,48.9,41.7,29.89,NW,313,1.0,8.0,76,0.00,,---,0.00,VWS V14.00,2013-09-22 12:33:00,
2013-09-22 08:34:00,48.9,41.7,29.89,NNW,330,0.0,8.0,76,0.00,,---,0.00,VWS V14.00,2013-09-22 12:34:00,
2013-09-22 08:35:00,48.9,41.7,29.89,NNW,329,1.0,8.0,76,0.00,,---,0.00,VWS V14.00,2013-09-22 12:35:00,
2013-09-22 08:36:00,48.9,42.0,29.89,NW,325,8.0,8.0,77,0.00,,---,0.00,VWS V14.00,2013-09-22 12:36:00,
2013-09-22 08:37:00,48.9,42.0,29.89,NNW,337,2.0,8.0,77,0.00,,---,0.00,VWS V14.00,2013-09-22 12:37:00,
2013-09-22 08:38:00,48.9,42.0,29.89,NNW,335,0.0,8.0,77,0.00,,---,0.00,VWS V14.00,2013-09-22 12:38:00,
2013-09-22 08:39:00,48.9,42.0,29.89,NNW,344,0.0,8.0,77,0.00,,---,0.00,VWS V14.00,2013-09-22 12:39:00,
2013-09-22 08:40:00,48.9,42.0,29.89,NNW,329,1.0,8.0,77,0.00,,---,0.00,VWS V14.00,2013-09-22 12:40:00,
2013-09-22 08:41:00,48.9,42.0,29.89,NW,316,0.0,8.0,77,0.00,,---,0.00,VWS V14.00,2013-09-22 12:41:00,
2013-09-22 08:42:00,48.9,42.0,29.89,NNW,343,2.0,8.0,77,0.00,,---,0.00,VWS V14.00,2013-09-22 12:42:00,
2013-09-22 08:44:00,48.9,42.0,29.89,NNW,329,1.0,8.0,77,0.00,,---,0.00,VWS V14.00,2013-09-22 12:44:00,
2013-09-22 08:45:00,49.1,42.2,29.89,NW,305,0.0,8.0,77,0.00,,---,0.00,VWS V14.00,2013-09-22 12:45:00,
2013-09-22 08:46:00,49.1,42.5,29.89,NNW,342,2.0,8.0,78,0.00,,---,0.00,VWS V14.00,2013-09-22 12:46:00,
2013-09-22 08:47:00,49.1,42.5,29.89,NW,304,7.0,8.0,78,0.00,,---,0.00,VWS V14.00,2013-09-22 12:47:00,
2013-09-22 08:49:00,49.1,42.5,29.89,WNW,299,4.0,13.0,78,0.00,,---,0.00,VWS V14.00,2013-09-22 12:49:00,
2013-09-22 08:50:00,49.1,42.5,29.89,NW,323,2.0,13.0,78,0.00,,---,0.00,VWS V14.00,2013-09-22 12:50:00,
2013-09-22 08:51:00,49.2,42.6,29.89,NNE,23,0.0,13.0,78,0.00,,---,0.00,VWS V14.00,2013-09-22 12:51:00,
2013-09-22 08:52:00,49.2,42.6,29.89,NW,309,2.0,13.0,78,0.00,,---,0.00,VWS V14.00,2013-09-22 12:52:00,
2013-09-22 08:54:00,49.2,42.6,29.89,North,354,7.0,13.0,78,0.00,,---,0.00,VWS V14.00,2013-09-22 12:54:00,
2013-09-22 08:55:00,49.2,42.6,29.89,North,6,6.0,13.0,78,0.00,,---,0.00,VWS V14.00,2013-09-22 12:55:00,
2013-09-22 08:57:00,49.2,42.6,29.89,North,6,2.0,13.0,78,0.00,,---,0.00,VWS V14.00,2013-09-22 12:57:00,
2013-09-22 08:58:00,49.2,42.6,29.89,NNW,342,8.0,13.0,78,0.00,,---,0.00,VWS V14.00,2013-09-22 12:58:00,
2013-09-22 08:59:00,49.2,42.6,29.89,NNE,17,4.0,13.0,78,0.00,,---,0.00,VWS V14.00,2013-09-22 12:59:00,
2013-09-22 09:00:00,49.4,42.8,29.90,WNW,289,2.0,13.0,78,0.00,,---,0.00,VWS V14.00,2013-09-22 13:00:00,
2013-09-22 09:02:00,49.4,42.8,29.90,NNW,333,8.0,9.0,78,0.00,,---,0.00,VWS V14.00,2013-09-22 13:02:00,
2013-09-22 09:03:00,49.4,42.8,29.90,NNW,329,2.0,9.0,78,0.00,,---,0.00,VWS V14.00,2013-09-22 13:03:00,
2013-09-22 09:04:00,49.4,42.8,29.90,NNE,24,2.0,9.0,78,0.00,,---,0.00,VWS V14.00,2013-09-22 13:04:00,
2013-09-22 09:05:00,49.4,42.8,29.90,North,6,9.0,11.0,78,0.00,,---,0.00,VWS V14.00,2013-09-22 13:05:00,
2013-09-22 09:06:00,49.5,42.9,29.90,North,0,2.0,11.0,78,0.00,,---,0.00,VWS V14.00,2013-09-22 13:06:00,
2013-09-22 09:07:00,49.5,42.9,29.90,NE,41,2.0,11.0,78,0.00,,---,0.00,VWS V14.00,2013-09-22 13:07:00,
2013-09-22 09:08:00,49.5,42.9,29.90,NW,326,2.0,11.0,78,0.00,,---,0.00,VWS V14.00,2013-09-22 13:08:00,
2013-09-22 09:09:00,49.5,42.9,29.90,North,0,9.0,13.0,78,0.00,,---,0.00,VWS V14.00,2013-09-22 13:09:00,
2013-09-22 09:10:00,49.6,43.0,29.90,North,356,10.0,13.0,78,0.00,,---,0.00,VWS V14.00,2013-09-22 13:10:00,
2013-09-22 09:11:00,49.6,43.0,29.90,North,357,14.0,14.0,78,0.00,,---,0.00,VWS V14.00,2013-09-22 13:11:00,
2013-09-22 09:12:00,49.6,43.0,29.90,WNW,285,1.0,14.0,78,0.00,,---,0.00,VWS V14.00,2013-09-22 13:12:00,
2013-09-22 09:13:00,49.6,43.0,29.90,NW,322,6.0,14.0,78,0.00,,---,0.00,VWS V14.00,2013-09-22 13:13:00,
2013-09-22 09:15:00,49.8,43.2,29.90,NE,41,7.0,14.0,78,0.00,,---,0.00,VWS V14.00,2013-09-22 13:15:00,
2013-09-22 09:16:00,49.8,43.2,29.91,NW,326,2.0,14.0,78,0.00,,---,0.00,VWS V14.00,2013-09-22 13:16:00,
2013-09-22 09:18:00,49.8,43.2,29.91,WNW,287,4.0,14.0,78,0.00,,---,0.00,VWS V14.00,2013-09-22 13:18:00,
2013-09-22 09:20:00,49.9,43.3,29.91,North,0,7.0,14.0,78,0.00,,---,0.00,VWS V14.00,2013-09-22 13:20:00,
2013-09-22 09:21:00,49.9,43.0,29.91,North,0,10.0,14.0,77,0.00,,---,0.00,VWS V14.00,2013-09-22 13:21:00,
2013-09-22 09:23:00,49.8,42.5,29.91,NW,311,8.0,15.0,76,0.00,,---,0.00,VWS V14.00,2013-09-22 13:23:00,
2013-09-22 09:25:00,49.9,42.3,29.91,NNE,24,4.0,15.0,75,0.00,,---,0.00,VWS V14.00,2013-09-22 13:25:00,
2013-09-22 09:26:00,50.1,42.5,29.91,NNW,333,0.0,15.0,75,0.00,,---,0.00,VWS V14.00,2013-09-22 13:26:00,
2013-09-22 09:28:00,50.1,42.5,29.91,NNE,20,6.0,15.0,75,0.00,,---,0.00,VWS V14.00,2013-09-22 13:28:00,
2013-09-22 09:30:00,50.2,42.2,29.92,NNW,344,7.0,15.0,74,0.00,,---,0.00,VWS V14.00,2013-09-22 13:30:00,
2013-09-22 09:31:00,50.2,42.2,29.92,NNW,343,6.0,15.0,74,0.00,,---,0.00,VWS V14.00,2013-09-22 13:31:00,
2013-09-22 09:33:00,50.4,42.4,29.92,NNE,24,8.0,15.0,74,0.00,,---,0.00,VWS V14.00,2013-09-22 13:33:00,
2013-09-22 09:34:00,50.4,42.4,29.92,North,0,7.0,15.0,74,0.00,,---,0.00,VWS V14.00,2013-09-22 13:34:00,
2013-09-22 09:35:00,50.4,42.4,29.92,NNE,23,9.0,15.0,74,0.00,,---,0.00,VWS V14.00,2013-09-22 13:35:00,
2013-09-22 09:36:00,50.4,42.4,29.92,North,354,6.0,15.0,74,0.00,,---,0.00,VWS V14.00,2013-09-22 13:36:00,
2013-09-22 09:38:00,50.5,42.2,29.92,NE,34,4.0,15.0,73,0.00,,---,0.00,VWS V14.00,2013-09-22 13:38:00,
2013-09-22 09:39:00,50.5,42.2,29.92,NNE,27,6.0,15.0,73,0.00,,---,0.00,VWS V14.00,2013-09-22 13:39:00,
2013-09-22 09:40:00,50.5,42.2,29.92,NNW,342,4.0,15.0,73,0.00,,---,0.00,VWS V14.00,2013-09-22 13:40:00,
2013-09-22 09:41:00,50.5,41.8,29.92,NW,313,11.0,15.0,72,0.00,,---,0.00,VWS V14.00,2013-09-22 13:41:00,
2013-09-22 09:43:00,50.5,41.5,29.92,North,0,10.0,15.0,71,0.00,,---,0.00,VWS V14.00,2013-09-22 13:43:00,
2013-09-22 09:44:00,50.5,41.1,29.92,North,357,7.0,15.0,70,0.00,,---,0.00,VWS V14.00,2013-09-22 13:44:00,
2013-09-22 09:45:00,50.5,41.1,29.92,WNW,291,9.0,15.0,70,0.00,,---,0.00,VWS V14.00,2013-09-22 13:45:00,
2013-09-22 09:46:00,50.5,40.7,29.92,North,0,9.0,15.0,69,0.00,,---,0.00,VWS V14.00,2013-09-22 13:46:00,
2013-09-22 09:48:00,50.5,40.3,29.92,NW,325,14.0,20.0,68,0.00,,---,0.00,VWS V14.00,2013-09-22 13:48:00,
2013-09-22 09:49:00,50.7,40.5,29.92,NW,323,9.0,20.0,68,0.00,,---,0.00,VWS V14.00,2013-09-22 13:49:00,
2013-09-22 09:50:00,50.7,40.2,29.92,NNE,17,10.0,20.0,67,0.00,,---,0.00,VWS V14.00,2013-09-22 13:50:00,
2013-09-22 09:51:00,50.7,40.2,29.92,NNE,17,2.0,20.0,67,0.00,,---,0.00,VWS V14.00,2013-09-22 13:51:00,
2013-09-22 09:52:00,50.7,40.2,29.92,NNE,24,6.0,20.0,67,0.00,,---,0.00,VWS V14.00,2013-09-22 13:52:00,
2013-09-22 09:53:00,50.8,39.9,29.92,North,356,9.0,20.0,66,0.00,,---,0.00,VWS V14.00,2013-09-22 13:53:00,
2013-09-22 09:54:00,50.8,39.9,29.92,NW,318,7.0,20.0,66,0.00,,---,0.00,VWS V14.00,2013-09-22 13:54:00,
2013-09-22 09:55:00,50.8,39.5,29.92,West,275,6.0,20.0,65,0.00,,---,0.00,VWS V14.00,2013-09-22 13:55:00,
2013-09-22 09:56:00,50.8,39.5,29.92,NNW,333,14.0,20.0,65,0.00,,---,0.00,VWS V14.00,2013-09-22 13:56:00,
2013-09-22 09:57:00,50.8,39.5,29.92,NW,305,14.0,20.0,65,0.00,,---,0.00,VWS V14.00,2013-09-22 13:57:00,
2013-09-22 09:58:00,51.0,39.3,29.92,NNW,336,9.0,20.0,64,0.00,,---,0.00,VWS V14.00,2013-09-22 13:58:00,
2013-09-22 09:59:00,51.0,39.7,29.92,North,356,4.0,20.0,65,0.00,,---,0.00,VWS V14.00,2013-09-22 13:59:00,
2013-09-22 10:00:00,51.1,39.8,29.92,NW,313,7.0,20.0,65,0.00,,---,0.00,VWS V14.00,2013-09-22 14:00:00,
2013-09-22 10:01:00,51.1,39.8,29.92,NNW,343,1.0,7.0,65,0.00,,---,0.00,VWS V14.00,2013-09-22 14:01:00,
2013-09-22 10:02:00,51.1,39.8,29.92,NE,34,6.0,10.0,65,0.00,,---,0.00,VWS V14.00,2013-09-22 14:02:00,
2013-09-22 10:04:00,51.3,40.0,29.92,North,6,8.0,10.0,65,0.00,,---,0.00,VWS V14.00,2013-09-22 14:04:00,
2013-09-22 10:05:00,51.3,40.0,29.92,NW,319,2.0,16.0,65,0.00,,---,0.00,VWS V14.00,2013-09-22 14:05:00,
2013-09-22 10:06:00,51.3,39.5,29.92,North,353,9.0,16.0,64,0.00,,---,0.00,VWS V14.00,2013-09-22 14:06:00,
2013-09-22 10:07:00,51.3,39.5,29.92,North,357,10.0,16.0,64,0.00,,---,0.00,VWS V14.00,2013-09-22 14:07:00,
2013-09-22 10:09:00,51.4,39.7,29.92,NNW,337,9.0,16.0,64,0.00,,---,0.00,VWS V14.00,2013-09-22 14:09:00,
2013-09-22 10:10:00,51.4,40.0,29.92,NNW,330,11.0,16.0,65,0.00,,---,0.00,VWS V14.00,2013-09-22 14:10:00,
2013-09-22 10:12:00,51.4,40.0,29.92,North,349,7.0,16.0,65,0.00,,---,0.00,VWS V14.00,2013-09-22 14:12:00,
2013-09-22 10:14:00,51.6,40.2,29.92,North,0,2.0,16.0,65,0.00,,---,0.00,VWS V14.00,2013-09-22 14:14:00,
2013-09-22 10:15:00,51.6,39.8,29.92,NNW,329,13.0,16.0,64,0.00,,---,0.00,VWS V14.00,2013-09-22 14:15:00,
2013-09-22 10:17:00,51.6,39.8,29.92,NNW,330,11.0,16.0,64,0.00,,---,0.00,VWS V14.00,2013-09-22 14:17:00,
2013-09-22 10:19:00,51.6,39.4,29.92,NNW,339,4.0,16.0,63,0.00,,---,0.00,VWS V14.00,2013-09-22 14:19:00,
2013-09-22 10:20:00,51.6,39.4,29.92,WNW,302,7.0,16.0,63,0.00,,---,0.00,VWS V14.00,2013-09-22 14:20:00,
2013-09-22 10:21:00,51.6,39.8,29.92,North,353,4.0,16.0,64,0.00,,---,0.00,VWS V14.00,2013-09-22 14:21:00,
2013-09-22 10:22:00,51.7,40.3,29.92,WNW,296,6.0,16.0,65,0.00,,---,0.00,VWS V14.00,2013-09-22 14:22:00,
2013-09-22 10:24:00,51.9,40.5,29.92,NW,319,10.0,16.0,65,0.00,,---,0.00,VWS V14.00,2013-09-22 14:24:00,
2013-09-22 10:25:00,51.9,40.1,29.92,North,0,7.0,16.0,64,0.00,,---,0.00,VWS V14.00,2013-09-22 14:25:00,
2013-09-22 10:26:00,51.9,40.1,29.92,WNW,295,4.0,16.0,64,0.00,,---,0.00,VWS V14.00,2013-09-22 14:26:00,
2013-09-22 10:27:00,51.9,40.1,29.92,WNW,296,7.0,16.0,64,0.00,,---,0.00,VWS V14.00,2013-09-22 14:27:00,
2013-09-22 10:29:00,52.0,40.2,29.92,WNW,285,4.0,16.0,64,0.00,,---,0.00,VWS V14.00,2013-09-22 14:29:00,
2013-09-22 10:31:00,52.2,40.0,29.92,North,350,7.0,16.0,63,0.00,,---,0.00,VWS V14.00,2013-09-22 14:31:00,
2013-09-22 10:32:00,52.2,39.6,29.92,North,7,10.0,16.0,62,0.00,,---,0.00,VWS V14.00,2013-09-22 14:32:00,
2013-09-22 10:34:00,52.2,39.6,29.92,North,349,4.0,16.0,62,0.00,,---,0.00,VWS V14.00,2013-09-22 14:34:00,
2013-09-22 10:36:00,52.2,39.6,29.92,NNE,13,6.0,16.0,62,0.00,,---,0.00,VWS V14.00,2013-09-22 14:36:00,
2013-09-22 10:37:00,52.2,39.6,29.92,NNE,17,7.0,16.0,62,0.00,,---,0.00,VWS V14.00,2013-09-22 14:37:00,
2013-09-22 10:38:00,52.2,39.6,29.92,NNE,24,4.0,16.0,62,0.00,,---,0.00,VWS V14.00,2013-09-22 14:38:00,
2013-09-22 10:39:00,52.2,39.6,29.92,NNE,20,6.0,16.0,62,0.00,,---,0.00,VWS V14.00,2013-09-22 14:39:00,
2013-09-22 10:41:00,52.2,39.6,29.92,North,0,9.0,16.0,62,0.00,,---,0.00,VWS V14.00,2013-09-22 14:41:00,
2013-09-22 10:43:00,52.2,39.6,29.92,North,349,2.0,16.0,62,0.00,,---,0.00,VWS V14.00,2013-09-22 14:43:00,
2013-09-22 10:44:00,52.2,39.6,29.92,West,278,11.0,16.0,62,0.00,,---,0.00,VWS V14.00,2013-09-22 14:44:00,
2013-09-22 10:46:00,52.2,39.6,29.93,North,0,6.0,16.0,62,0.00,,---,0.00,VWS V14.00,2013-09-22 14:46:00,
2013-09-22 10:48:00,52.3,40.1,29.93,NNW,332,7.0,16.0,63,0.00,,---,0.00,VWS V14.00,2013-09-22 14:48:00,
2013-09-22 10:49:00,52.3,40.5,29.93,WNW,285,13.0,16.0,64,0.00,,---,0.00,VWS V14.00,2013-09-22 14:49:00,
2013-09-22 10:51:00,52.3,40.9,29.93,NW,311,9.0,16.0,65,0.00,,---,0.00,VWS V14.00,2013-09-22 14:51:00,
2013-09-22 10:53:00,52.3,40.1,29.93,WNW,282,9.0,17.0,63,0.00,,---,0.00,VWS V14.00,2013-09-22 14:53:00,
2013-09-22 10:55:00,52.2,40.0,29.93,NNW,329,0.0,17.0,63,0.00,,---,0.00,VWS V14.00,2013-09-22 14:55:00,
2013-09-22 10:56:00,52.2,40.4,29.93,NW,326,0.0,17.0,64,0.00,,---,0.00,VWS V14.00,2013-09-22 14:56:00,
2013-09-22 10:58:00,52.3,40.5,29.93,NW,308,2.0,17.0,64,0.00,,---,0.00,VWS V14.00,2013-09-22 14:58:00,
2013-09-22 11:00:00,52.3,40.9,29.93,WNW,287,9.0,17.0,65,0.00,,---,0.00,VWS V14.00,2013-09-22 15:00:00,
2013-09-22 11:01:00,52.5,41.5,29.93,WNW,284,11.0,17.0,66,0.00,,---,0.00,VWS V14.00,2013-09-22 15:01:00,
2013-09-22 11:03:00,52.3,41.3,29.93,NNW,330,11.0,14.0,66,0.00,,---,0.00,VWS V14.00,2013-09-22 15:03:00,
2013-09-22 11:05:00,52.3,40.9,29.93,West,281,6.0,14.0,65,0.00,,---,0.00,VWS V14.00,2013-09-22 15:05:00,
2013-09-22 11:06:00,52.3,40.9,29.93,WNW,302,4.0,14.0,65,0.00,,---,0.00,VWS V14.00,2013-09-22 15:06:00,
2013-09-22 11:09:00,52.5,41.5,29.93,WNW,294,8.0,14.0,66,0.00,,---,0.00,VWS V14.00,2013-09-22 15:09:00,
2013-09-22 11:10:00,52.5,41.5,29.93,NNE,17,0.0,14.0,66,0.00,,---,0.00,VWS V14.00,2013-09-22 15:10:00,
2013-09-22 11:11:00,52.5,41.5,29.93,North,349,11.0,14.0,66,0.00,,---,0.00,VWS V14.00,2013-09-22 15:11:00,
2013-09-22 11:14:00,52.3,40.9,29.93,NNE,24,1.0,14.0,65,0.00,,---,0.00,VWS V14.00,2013-09-22 15:14:00,
2013-09-22 11:15:00,52.3,40.9,29.93,North,357,0.0,14.0,65,0.00,,---,0.00,VWS V14.00,2013-09-22 15:15:00,
2013-09-22 11:16:00,52.5,41.1,29.93,NE,44,6.0,14.0,65,0.00,,---,0.00,VWS V14.00,2013-09-22 15:16:00,
2013-09-22 11:19:00,52.5,41.1,29.93,NW,306,0.0,14.0,65,0.00,,---,0.00,VWS V14.00,2013-09-22 15:19:00,
2013-09-22 11:20:00,52.6,41.6,29.93,NW,323,2.0,14.0,66,0.00,,---,0.00,VWS V14.00,2013-09-22 15:20:00,
2013-09-22 11:21:00,52.6,42.0,29.93,NW,319,6.0,14.0,67,0.00,,---,0.00,VWS V14.00,2013-09-22 15:21:00,
2013-09-22 11:22:00,52.6,41.6,29.93,WNW,291,8.0,14.0,66,0.00,,---,0.00,VWS V14.00,2013-09-22 15:22:00,
2013-09-22 11:24:00,52.8,41.8,29.93,West,271,7.0,14.0,66,0.00,,---,0.00,VWS V14.00,2013-09-22 15:24:00,
2013-09-22 11:25:00,52.9,42.3,29.93,WNW,299,4.0,14.0,67,0.00,,---,0.00,VWS V14.00,2013-09-22 15:25:00,
2013-09-22 11:26:00,52.9,42.3,29.93,NNW,336,6.0,14.0,67,0.00,,---,0.00,VWS V14.00,2013-09-22 15:26:00,
2013-09-22 11:27:00,52.9,41.9,29.93,West,272,6.0,14.0,66,0.00,,---,0.00,VWS V14.00,2013-09-22 15:27:00,
2013-09-22 11:29:00,52.9,41.9,29.93,NNW,344,8.0,15.0,66,0.00,,---,0.00,VWS V14.00,2013-09-22 15:29:00,
2013-09-22 11:30:00,52.9,41.9,29.93,North,10,6.0,15.0,66,0.00,,---,0.00,VWS V14.00,2013-09-22 15:30:00,
2013-09-22 11:31:00,52.9,41.5,29.93,NW,318,2.0,15.0,65,0.00,,---,0.00,VWS V14.00,2013-09-22 15:31:00,
2013-09-22 11:32:00,52.9,41.5,29.93,WNW,301,9.0,15.0,65,0.00,,---,0.00,VWS V14.00,2013-09-22 15:32:00,
2013-09-22 11:34:00,52.9,41.1,29.93,NW,322,7.0,15.0,64,0.00,,---,0.00,VWS V14.00,2013-09-22 15:34:00,
2013-09-22 11:36:00,52.9,41.1,29.93,North,6,6.0,15.0,64,0.00,,---,0.00,VWS V14.00,2013-09-22 15:36:00,
2013-09-22 11:37:00,53.1,41.3,29.93,NW,309,11.0,15.0,64,0.00,,---,0.00,VWS V14.00,2013-09-22 15:37:00,
2013-09-22 11:39:00,53.1,41.7,29.93,West,278,9.0,15.0,65,0.00,,---,0.00,VWS V14.00,2013-09-22 15:39:00,
2013-09-22 11:40:00,53.1,41.7,29.93,NNW,333,11.0,15.0,65,0.00,,---,0.00,VWS V14.00,2013-09-22 15:40:00,
2013-09-22 11:41:00,53.1,41.3,29.93,North,0,10.0,15.0,64,0.00,,---,0.00,VWS V14.00,2013-09-22 15:41:00,
2013-09-22 11:42:00,52.9,41.1,29.93,North,0,8.0,15.0,64,0.00,,---,0.00,VWS V14.00,2013-09-22 15:42:00,
2013-09-22 11:44:00,52.9,41.1,29.93,NNE,27,7.0,15.0,64,0.00,,---,0.00,VWS V14.00,2013-09-22 15:44:00,
2013-09-22 11:45:00,52.9,41.5,29.93,North,7,6.0,15.0,65,0.00,,---,0.00,VWS V14.00,2013-09-22 15:45:00,
2013-09-22 11:46:00,52.9,41.5,29.93,NNE,17,7.0,15.0,65,0.00,,---,0.00,VWS V14.00,2013-09-22 15:46:00,
2013-09-22 11:47:00,52.9,41.5,29.93,NNW,333,6.0,15.0,65,0.00,,---,0.00,VWS V14.00,2013-09-22 15:47:00,
2013-09-22 11:49:00,52.8,41.4,29.93,NNW,343,13.0,15.0,65,0.00,,---,0.00,VWS V14.00,2013-09-22 15:49:00,
2013-09-22 11:50:00,52.8,41.4,29.93,NNW,329,8.0,15.0,65,0.00,,---,0.00,VWS V14.00,2013-09-22 15:50:00,
2013-09-22 11:51:00,52.9,41.5,29.93,NNW,337,9.0,15.0,65,0.00,,---,0.00,VWS V14.00,2013-09-22 15:51:00,
2013-09-22 11:52:00,52.9,41.5,29.93,NNE,13,7.0,15.0,65,0.00,,---,0.00,VWS V14.00,2013-09-22 15:52:00,
2013-09-22 11:53:00,52.9,41.5,29.93,NNE,24,8.0,15.0,65,0.00,,---,0.00,VWS V14.00,2013-09-22 15:53:00,
2013-09-22 11:55:00,52.9,41.5,29.93,North,349,4.0,15.0,65,0.00,,---,0.00,VWS V14.00,2013-09-22 15:55:00,
2013-09-22 11:56:00,52.9,41.5,29.93,North,0,6.0,15.0,65,0.00,,---,0.00,VWS V14.00,2013-09-22 15:56:00,
2013-09-22 11:57:00,52.9,41.1,29.93,NE,34,6.0,15.0,64,0.00,,---,0.00,VWS V14.00,2013-09-22 15:57:00,
2013-09-22 11:58:00,52.8,40.6,29.93,NNE,13,4.0,15.0,63,0.00,,---,0.00,VWS V14.00,2013-09-22 15:58:00,
2013-09-22 12:00:00,52.8,40.6,29.94,West,280,1.0,15.0,63,0.00,,---,0.00,VWS V14.00,2013-09-22 16:00:00,
2013-09-22 12:01:00,52.8,40.6,29.94,NNW,336,2.0,2.0,63,0.00,,---,0.00,VWS V14.00,2013-09-22 16:01:00,
2013-09-22 12:02:00,52.8,41.0,29.94,NNE,17,0.0,9.0,64,0.00,,---,0.00,VWS V14.00,2013-09-22 16:02:00,
2013-09-22 12:03:00,52.8,41.0,29.94,NNW,344,4.0,9.0,64,0.00,,---,0.00,VWS V14.00,2013-09-22 16:03:00,
2013-09-22 12:05:00,52.9,40.7,29.94,NE,44,2.0,9.0,63,0.00,,---,0.00,VWS V14.00,2013-09-22 16:05:00,
2013-09-22 12:06:00,52.9,40.7,29.94,NNE,20,0.0,9.0,63,0.00,,---,0.00,VWS V14.00,2013-09-22 16:06:00,
2013-09-22 12:07:00,52.9,40.7,29.94,NE,40,6.0,9.0,63,0.00,,---,0.00,VWS V14.00,2013-09-22 16:07:00,
2013-09-22 12:09:00,52.9,40.7,29.94,NW,319,0.0,9.0,63,0.00,,---,0.00,VWS V14.00,2013-09-22 16:09:00,
2013-09-22 12:10:00,53.1,40.8,29.94,North,350,0.0,9.0,63,0.00,,---,0.00,VWS V14.00,2013-09-22 16:10:00,
2013-09-22 12:11:00,53.1,40.8,29.94,NW,325,1.0,9.0,63,0.00,,---,0.00,VWS V14.00,2013-09-22 16:11:00,
2013-09-22 12:12:00,53.2,41.3,29.94,WNW,292,4.0,9.0,64,0.00,,---,0.00,VWS V14.00,2013-09-22 16:12:00,
2013-09-22 12:14:00,53.5,42.4,29.94,SW,234,14.0,15.0,66,0.00,,---,0.00,VWS V14.00,2013-09-22 16:14:00,
2013-09-22 12:15:00,53.3,42.2,29.94,SSW,208,10.0,15.0,66,0.00,,---,0.00,VWS V14.00,2013-09-22 16:15:00,
2013-09-22 12:17:00,53.3,41.5,29.94,WNW,295,1.0,15.0,64,0.00,,---,0.00,VWS V14.00,2013-09-22 16:17:00,
2013-09-22 12:19:00,53.5,42.0,29.94,North,0,6.0,15.0,65,0.00,,---,0.00,VWS V14.00,2013-09-22 16:19:00,
2013-09-22 12:20:00,53.5,41.6,29.94,NNE,17,1.0,15.0,64,0.00,,---,0.00,VWS V14.00,2013-09-22 16:20:00,
2013-09-22 12:22:00,53.5,41.2,29.94,WNW,282,4.0,15.0,63,0.00,,---,0.00,VWS V14.00,2013-09-22 16:22:00,
2013-09-22 12:24:00,53.8,42.3,29.94,NW,306,7.0,15.0,65,0.00,,---,0.00,VWS V14.00,2013-09-22 16:24:00,
2013-09-22 12:25:00,53.8,42.3,29.94,NW,304,1.0,15.0,65,0.00,,---,0.00,VWS V14.00,2013-09-22 16:25:00,
2013-09-22 12:27:00,53.9,42.4,29.94,SSE,160,8.0,15.0,65,0.00,,---,0.00,VWS V14.00,2013-09-22 16:27:00,
2013-09-22 12:30:00,53.9,42.0,29.94,NW,319,6.0,16.0,64,0.00,,---,0.00,VWS V14.00,2013-09-22 16:30:00,
2013-09-22 12:31:00,53.9,42.0,29.94,WNW,288,2.0,16.0,64,0.00,,---,0.00,VWS V14.00,2013-09-22 16:31:00,
2013-09-22 12:32:00,54.1,42.2,29.94,NNW,340,6.0,16.0,64,0.00,,---,0.00,VWS V14.00,2013-09-22 16:32:00,
2013-09-22 12:35:00,54.1,41.8,29.94,NNE,27,2.0,16.0,63,0.00,,---,0.00,VWS V14.00,2013-09-22 16:35:00,
2013-09-22 12:36:00,54.1,41.8,29.94,WNW,302,4.0,16.0,63,0.00,,---,0.00,VWS V14.00,2013-09-22 16:36:00,
2013-09-22 12:37:00,54.2,42.3,29.94,NW,320,11.0,16.0,64,0.00,,---,0.00,VWS V14.00,2013-09-22 16:37:00,
2013-09-22 12:40:00,54.4,42.5,29.94,WNW,295,2.0,16.0,64,0.00,,---,0.00,VWS V14.00,2013-09-22 16:40:00,
2013-09-22 12:41:00,54.4,42.5,29.94,WNW,296,9.0,16.0,64,0.00,,---,0.00,VWS V14.00,2013-09-22 16:41:00,
2013-09-22 12:42:00,54.4,42.5,29.94,WNW,295,13.0,16.0,64,0.00,,---,0.00,VWS V14.00,2013-09-22 16:42:00,
2013-09-22 12:45:00,54.4,41.7,29.94,WNW,291,8.0,16.0,62,0.00,,---,0.00,VWS V14.00,2013-09-22 16:45:00,
2013-09-22 12:46:00,54.4,41.7,29.94,NNW,333,13.0,16.0,62,0.00,,---,0.00,VWS V14.00,2013-09-22 16:46:00,
2013-09-22 12:47:00,54.4,41.7,29.94,NNW,342,8.0,16.0,62,0.00,,---,0.00,VWS V14.00,2013-09-22 16:47:00,
2013-09-22 12:50:00,54.4,40.4,29.94,NW,315,4.0,16.0,59,0.00,,---,0.00,VWS V14.00,2013-09-22 16:50:00,
2013-09-22 12:52:00,54.5,40.9,29.94,NW,318,0.0,16.0,60,0.00,,---,0.00,VWS V14.00,2013-09-22 16:52:00,
2013-09-22 12:53:00,54.5,40.9,29.94,North,354,2.0,16.0,60,0.00,,---,0.00,VWS V14.00,2013-09-22 16:53:00,
2013-09-22 12:55:00,54.8,41.2,29.94,WSW,254,10.0,16.0,60,0.00,,---,0.00,VWS V14.00,2013-09-22 16:55:00,
2013-09-22 12:57:00,55.1,42.3,29.94,West,278,8.0,16.0,62,0.00,,---,0.00,VWS V14.00,2013-09-22 16:57:00,
2013-09-22 12:58:00,55.1,43.2,29.94,NW,306,9.0,16.0,64,0.00,,---,0.00,VWS V14.00,2013-09-22 16:58:00,
2013-09-22 13:01:00,55.6,42.8,29.93,West,268,11.0,16.0,62,0.00,,---,0.00,VWS V14.00,2013-09-22 17:01:00,
2013-09-22 13:02:00,55.7,43.3,29.93,West,281,6.0,10.0,63,0.00,,---,0.00,VWS V14.00,2013-09-22 17:02:00,
2013-09-22 13:03:00,55.7,42.9,29.93,WNW,294,2.0,10.0,62,0.00,,---,0.00,VWS V14.00,2013-09-22 17:03:00,
2013-09-22 13:06:00,55.7,42.0,29.93,WNW,284,11.0,13.0,60,0.00,,---,0.00,VWS V14.00,2013-09-22 17:06:00,
2013-09-22 13:07:00,55.9,42.7,29.93,NW,318,9.0,15.0,61,0.00,,---,0.00,VWS V14.00,2013-09-22 17:07:00,
2013-09-22 13:08:00,55.9,42.7,29.93,NNW,333,6.0,15.0,61,0.00,,---,0.00,VWS V14.00,2013-09-22 17:08:00,
2013-09-22 13:11:00,55.9,42.2,29.93,West,281,6.0,15.0,60,0.00,,---,0.00,VWS V14.00,2013-09-22 17:11:00,
2013-09-22 13:12:00,56.0,42.8,29.93,North,357,4.0,15.0,61,0.00,,---,0.00,VWS V14.00,2013-09-22 17:12:00,
2013-09-22 13:13:00,56.0,42.8,29.93,WNW,302,9.0,15.0,61,0.00,,---,0.00,VWS V14.00,2013-09-22 17:13:00,
2013-09-22 13:16:00,56.2,43.0,29.94,WNW,301,18.0,18.0,61,0.00,,---,0.00,VWS V14.00,2013-09-22 17:16:00,
2013-09-22 13:17:00,56.3,42.6,29.94,North,354,10.0,18.0,60,0.00,,---,0.00,VWS V14.00,2013-09-22 17:17:00,
2013-09-22 13:18:00,56.3,42.6,29.94,NNE,17,8.0,18.0,60,0.00,,---,0.00,VWS V14.00,2013-09-22 17:18:00,
2013-09-22 13:21:00,56.3,42.2,29.94,North,3,1.0,18.0,59,0.00,,---,0.00,VWS V14.00,2013-09-22 17:21:00,
2013-09-22 13:22:00,56.6,43.8,29.94,NNE,16,6.0,18.0,62,0.00,,---,0.00,VWS V14.00,2013-09-22 17:22:00,
2013-09-22 13:23:00,56.7,43.8,29.94,North,0,1.0,18.0,62,0.00,,---,0.00,VWS V14.00,2013-09-22 17:23:00,
2013-09-22 13:26:00,57.0,43.7,29.94,North,0,4.0,18.0,61,0.00,,---,0.00,VWS V14.00,2013-09-22 17:26:00,
2013-09-22 13:27:00,57.2,43.5,29.94,WNW,288,1.0,18.0,60,0.00,,---,0.00,VWS V14.00,2013-09-22 17:27:00,
2013-09-22 13:28:00,57.3,43.5,29.94,NW,320,9.0,18.0,60,0.00,,---,0.00,VWS V14.00,2013-09-22 17:28:00,
2013-09-22 13:31:00,57.2,41.7,29.94,NNW,332,11.0,18.0,56,0.00,,---,0.00,VWS V14.00,2013-09-22 17:31:00,
2013-09-22 13:32:00,57.2,41.7,29.94,NNW,346,9.0,18.0,56,0.00,,---,0.00,VWS V14.00,2013-09-22 17:32:00,
2013-09-22 13:33:00,57.3,41.8,29.94,North,0,9.0,18.0,56,0.00,,---,0.00,VWS V14.00,2013-09-22 17:33:00,
2013-09-22 13:36:00,57.2,40.7,29.94,North,6,4.0,18.0,54,0.00,,---,0.00,VWS V14.00,2013-09-22 17:36:00,
2013-09-22 13:38:00,57.2,41.2,29.94,NW,306,2.0,18.0,55,0.00,,---,0.00,VWS V14.00,2013-09-22 17:38:00,
2013-09-22 13:42:00,57.3,41.8,29.94,NW,306,11.0,18.0,56,0.00,,---,0.00,VWS V14.00,2013-09-22 17:42:00,
2013-09-22 13:43:00,57.3,41.8,29.94,NNW,336,4.0,18.0,56,0.00,,---,0.00,VWS V14.00,2013-09-22 17:43:00,
2013-09-22 13:47:00,57.3,41.3,29.93,NW,319,8.0,18.0,55,0.00,,---,0.00,VWS V14.00,2013-09-22 17:47:00,
2013-09-22 13:48:00,57.5,42.4,29.93,NW,320,4.0,18.0,57,0.00,,---,0.00,VWS V14.00,2013-09-22 17:48:00,
2013-09-22 13:52:00,57.6,42.5,29.93,North,10,6.0,18.0,57,0.00,,---,0.00,VWS V14.00,2013-09-22 17:52:00,
2013-09-22 13:53:00,57.6,41.6,29.93,East,92,0.0,18.0,55,0.00,,---,0.00,VWS V14.00,2013-09-22 17:53:00,
2013-09-22 13:54:00,57.6,41.6,29.93,NE,44,7.0,18.0,55,0.00,,---,0.00,VWS V14.00,2013-09-22 17:54:00,
2013-09-22 13:57:00,57.5,41.5,29.93,North,3,2.0,18.0,55,0.00,,---,0.00,VWS V14.00,2013-09-22 17:57:00,
2013-09-22 13:58:00,57.3,41.3,29.93,NE,54,6.0,18.0,55,0.00,,---,0.00,VWS V14.00,2013-09-22 17:58:00,
2013-09-22 13:59:00,57.3,41.3,29.93,NNE,27,8.0,18.0,55,0.00,,---,0.00,VWS V14.00,2013-09-22 17:59:00,
2013-09-22 14:02:00,57.2,41.2,29.93,NNE,17,4.0,6.0,55,0.00,,---,0.00,VWS V14.00,2013-09-22 18:02:00,
2013-09-22 14:03:00,57.0,41.0,29.93,NE,37,7.0,13.0,55,0.00,,---,0.00,VWS V14.00,2013-09-22 18:03:00,
2013-09-22 14:04:00,57.0,40.5,29.93,North,0,8.0,14.0,54,0.00,,---,0.00,VWS V14.00,2013-09-22 18:04:00,
2013-09-22 14:07:00,56.9,40.4,29.93,NNW,329,8.0,14.0,54,0.00,,---,0.00,VWS V14.00,2013-09-22 18:07:00,
2013-09-22 14:08:00,57.2,42.6,29.93,WNW,288,8.0,14.0,58,0.00,,---,0.00,VWS V14.00,2013-09-22 18:08:00,
2013-09-22 14:09:00,57.2,43.0,29.93,NNW,329,8.0,14.0,59,0.00,,---,0.00,VWS V14.00,2013-09-22 18:09:00,
2013-09-22 14:12:00,57.3,41.3,29.93,NNW,336,2.0,15.0,55,0.00,,---,0.00,VWS V14.00,2013-09-22 18:12:00,
2013-09-22 14:13:00,57.5,42.4,29.93,WNW,289,4.0,15.0,57,0.00,,---,0.00,VWS V14.00,2013-09-22 18:13:00,
2013-09-22 14:14:00,57.8,42.2,29.93,WNW,284,4.0,15.0,56,0.00,,---,0.00,VWS V14.00,2013-09-22 18:14:00,
2013-09-22 14:17:00,58.0,41.9,29.92,NNE,16,4.0,15.0,55,0.00,,---,0.00,VWS V14.00,2013-09-22 18:17:00,
2013-09-22 14:18:00,58.0,41.9,29.92,North,6,7.0,15.0,55,0.00,,---,0.00,VWS V14.00,2013-09-22 18:18:00,
2013-09-22 14:20:00,58.1,43.9,29.92,North,0,11.0,15.0,59,0.00,,---,0.00,VWS V14.00,2013-09-22 18:20:00,
2013-09-22 14:22:00,58.3,43.6,29.92,NNW,335,1.0,15.0,58,0.00,,---,0.00,VWS V14.00,2013-09-22 18:22:00,
2013-09-22 14:23:00,58.3,43.2,29.92,NW,308,4.0,15.0,57,0.00,,---,0.00,VWS V14.00,2013-09-22 18:23:00,
2013-09-22 14:25:00,58.6,44.8,29.92,North,353,1.0,15.0,60,0.00,,---,0.00,VWS V14.00,2013-09-22 18:25:00,
2013-09-22 14:27:00,58.6,43.0,29.92,North,6,8.0,15.0,56,0.00,,---,0.00,VWS V14.00,2013-09-22 18:27:00,
2013-09-22 14:28:00,58.6,42.5,29.92,NW,319,11.0,15.0,55,0.00,,---,0.00,VWS V14.00,2013-09-22 18:28:00,
2013-09-22 14:29:00,58.6,42.5,29.92,NNW,340,9.0,15.0,55,0.00,,---,0.00,VWS V14.00,2013-09-22 18:29:00,
2013-09-22 14:31:00,58.6,42.0,29.92,WNW,288,6.0,15.0,54,0.00,,---,0.00,VWS V14.00,2013-09-22 18:31:00,
2013-09-22 14:33:00,58.7,43.1,29.92,North,3,4.0,15.0,56,0.00,,---,0.00,VWS V14.00,2013-09-22 18:33:00,
2013-09-22 14:34:00,58.7,43.1,29.92,NNE,27,0.0,15.0,56,0.00,,---,0.00,VWS V14.00,2013-09-22 18:34:00,
2013-09-22 14:36:00,58.9,42.3,29.92,North,357,9.0,15.0,54,0.00,,---,0.00,VWS V14.00,2013-09-22 18:36:00,
2013-09-22 14:38:00,58.9,41.3,29.92,NW,318,7.0,15.0,52,0.00,,---,0.00,VWS V14.00,2013-09-22 18:38:00,
2013-09-22 14:39:00,58.7,41.6,29.92,NNE,13,1.0,15.0,53,0.00,,---,0.00,VWS V14.00,2013-09-22 18:39:00,
2013-09-22 14:41:00,58.7,42.1,29.92,NW,322,0.0,15.0,54,0.00,,---,0.00,VWS V14.00,2013-09-22 18:41:00,
2013-09-22 14:43:00,59.0,43.8,29.92,NW,322,2.0,15.0,57,0.00,,---,0.00,VWS V14.00,2013-09-22 18:43:00,
2013-09-22 14:44:00,59.0,42.9,29.92,NW,316,4.0,15.0,55,0.00,,---,0.00,VWS V14.00,2013-09-22 18:44:00,
2013-09-22 14:46:00,59.2,43.1,29.92,WNW,299,4.0,15.0,55,0.00,,---,0.00,VWS V14.00,2013-09-22 18:46:00,
2013-09-22 14:48:00,59.3,43.2,29.92,North,6,4.0,15.0,55,0.00,,---,0.00,VWS V14.00,2013-09-22 18:48:00,
2013-09-22 14:49:00,59.2,43.1,29.92,North,10,6.0,15.0,55,0.00,,---,0.00,VWS V14.00,2013-09-22 18:49:00,
2013-09-22 14:51:00,59.2,42.1,29.92,NE,41,2.0,15.0,53,0.00,,---,0.00,VWS V14.00,2013-09-22 18:51:00,
2013-09-22 14:53:00,58.9,41.8,29.92,NW,319,8.0,15.0,53,0.00,,---,0.00,VWS V14.00,2013-09-22 18:53:00,
2013-09-22 14:54:00,58.9,41.8,29.92,NW,319,8.0,15.0,53,0.00,,---,0.00,VWS V14.00,2013-09-22 18:54:00,
2013-09-22 14:56:00,59.0,43.3,29.92,West,268,9.0,15.0,56,0.00,,---,0.00,VWS V14.00,2013-09-22 18:56:00,
2013-09-22 14:58:00,59.0,43.8,29.92,West,270,8.0,15.0,57,0.00,,---,0.00,VWS V14.00,2013-09-22 18:58:00,
2013-09-22 14:59:00,59.2,44.0,29.92,WNW,285,6.0,15.0,57,0.00,,---,0.00,VWS V14.00,2013-09-22 18:59:00,
2013-09-22 15:01:00,59.2,43.5,29.92,WNW,298,1.0,2.0,56,0.00,,---,0.00,VWS V14.00,2013-09-22 19:01:00,
2013-09-22 15:04:00,59.5,44.7,29.92,NNW,330,1.0,11.0,58,0.00,,---,0.00,VWS V14.00,2013-09-22 19:04:00,
2013-09-22 15:05:00,59.5,44.7,29.92,NNW,329,1.0,11.0,58,0.00,,---,0.00,VWS V14.00,2013-09-22 19:05:00,
2013-09-22 15:06:00,59.6,43.4,29.92,NNW,343,9.0,11.0,55,0.00,,---,0.00,VWS V14.00,2013-09-22 19:06:00,
2013-09-22 15:09:00,59.3,41.7,29.92,NNW,346,9.0,14.0,52,0.00,,---,0.00,VWS V14.00,2013-09-22 19:09:00,
2013-09-22 15:10:00,59.3,41.7,29.92,North,349,7.0,14.0,52,0.00,,---,0.00,VWS V14.00,2013-09-22 19:10:00,
2013-09-22 15:11:00,59.3,42.2,29.92,North,0,7.0,14.0,53,0.00,,---,0.00,VWS V14.00,2013-09-22 19:11:00,
2013-09-22 15:14:00,59.5,43.3,29.92,WNW,282,9.0,14.0,55,0.00,,---,0.00,VWS V14.00,2013-09-22 19:14:00,
2013-09-22 15:15:00,59.5,43.3,29.92,NW,315,1.0,14.0,55,0.00,,---,0.00,VWS V14.00,2013-09-22 19:15:00,
2013-09-22 15:16:00,59.6,43.9,29.92,North,0,0.0,14.0,56,0.00,,---,0.00,VWS V14.00,2013-09-22 19:16:00,
2013-09-22 15:19:00,59.9,43.7,29.92,NW,309,2.0,14.0,55,0.00,,---,0.00,VWS V14.00,2013-09-22 19:19:00,
2013-09-22 15:20:00,60.1,43.9,29.92,West,277,11.0,14.0,55,0.00,,---,0.00,VWS V14.00,2013-09-22 19:20:00,
2013-09-22 15:21:00,60.2,44.5,29.92,WNW,301,6.0,14.0,56,0.00,,---,0.00,VWS V14.00,2013-09-22 19:21:00,
2013-09-22 15:24:00,60.4,44.2,29.92,NNE,20,0.0,14.0,55,0.00,,---,0.00,VWS V14.00,2013-09-22 19:24:00,
2013-09-22 15:25:00,60.4,44.2,29.92,NNE,17,0.0,14.0,55,0.00,,---,0.00,VWS V14.00,2013-09-22 19:25:00,
2013-09-22 15:27:00,60.7,44.5,29.92,NNW,329,0.0,14.0,55,0.00,,---,0.00,VWS V14.00,2013-09-22 19:27:00,
2013-09-22 15:29:00,60.9,43.7,29.92,North,353,4.0,14.0,53,0.00,,---,0.00,VWS V14.00,2013-09-22 19:29:00,
2013-09-22 15:30:00,61.0,44.2,29.91,NW,320,2.0,14.0,54,0.00,,---,0.00,VWS V14.00,2013-09-22 19:30:00,
2013-09-22 15:32:00,60.9,43.7,29.91,North,0,4.0,14.0,53,0.00,,---,0.00,VWS V14.00,2013-09-22 19:32:00,
2013-09-22 15:34:00,60.4,42.2,29.91,North,0,8.0,14.0,51,0.00,,---,0.00,VWS V14.00,2013-09-22 19:34:00,
2013-09-22 15:35:00,60.1,41.9,29.91,NNE,20,8.0,14.0,51,0.00,,---,0.00,VWS V14.00,2013-09-22 19:35:00,
2013-09-22 15:38:00,59.3,42.2,29.91,NW,322,0.0,14.0,53,0.00,,---,0.00,VWS V14.00,2013-09-22 19:38:00,
2013-09-22 15:39:00,59.3,43.2,29.91,NNW,339,6.0,14.0,55,0.00,,---,0.00,VWS V14.00,2013-09-22 19:39:00,
2013-09-22 15:40:00,59.2,43.1,29.91,North,356,10.0,14.0,55,0.00,,---,0.00,VWS V14.00,2013-09-22 19:40:00,
2013-09-22 15:43:00,59.2,43.1,29.91,North,350,2.0,14.0,55,0.00,,---,0.00,VWS V14.00,2013-09-22 19:43:00,
2013-09-22 15:44:00,59.2,42.6,29.91,West,272,4.0,14.0,54,0.00,,---,0.00,VWS V14.00,2013-09-22 19:44:00,
2013-09-22 15:45:00,59.2,42.1,29.92,North,6,8.0,14.0,53,0.00,,---,0.00,VWS V14.00,2013-09-22 19:45:00,
2013-09-22 15:48:00,58.7,41.6,29.92,NNE,20,4.0,14.0,53,0.00,,---,0.00,VWS V14.00,2013-09-22 19:48:00,
2013-09-22 15:49:00,58.6,41.5,29.92,NNW,337,10.0,14.0,53,0.00,,---,0.00,VWS V14.00,2013-09-22 19:49:00,
2013-09-22 15:50:00,58.4,41.3,29.92,North,0,1.0,14.0,53,0.00,,---,0.00,VWS V14.00,2013-09-22 19:50:00,
2013-09-22 15:51:00,58.4,41.3,29.92,NNW,342,4.0,14.0,53,0.00,,---,0.00,VWS V14.00,2013-09-22 19:51:00,
2013-09-22 15:53:00,58.4,41.8,29.92,North,6,4.0,14.0,54,0.00,,---,0.00,VWS V14.00,2013-09-22 19:53:00,
2013-09-22 15:54:00,58.3,41.8,29.92,NNE,30,0.0,14.0,54,0.00,,---,0.00,VWS V14.00,2013-09-22 19:54:00,
2013-09-22 15:55:00,58.4,42.3,29.92,West,280,10.0,14.0,55,0.00,,---,0.00,VWS V14.00,2013-09-22 19:55:00,
2013-09-22 15:56:00,58.6,43.9,29.92,West,280,8.0,14.0,58,0.00,,---,0.00,VWS V14.00,2013-09-22 19:56:00,
2013-09-22 15:59:00,59.2,45.3,29.92,WSW,257,1.0,14.0,60,0.00,,---,0.00,VWS V14.00,2013-09-22 19:59:00,
2013-09-22 16:00:00,59.2,44.5,29.91,WSW,256,0.0,14.0,58,0.00,,---,0.00,VWS V14.00,2013-09-22 20:00:00,
2013-09-22 16:01:00,59.2,44.5,29.91,WSW,256,0.0,0.0,58,0.00,,---,0.00,VWS V14.00,2013-09-22 20:01:00,
2013-09-22 16:04:00,59.6,44.8,29.91,NNW,347,7.0,9.0,58,0.00,,---,0.00,VWS V14.00,2013-09-22 20:04:00,
2013-09-22 16:05:00,59.5,44.7,29.91,NNW,330,6.0,9.0,58,0.00,,---,0.00,VWS V14.00,2013-09-22 20:05:00,
2013-09-22 16:06:00,59.5,44.7,29.91,North,0,2.0,9.0,58,0.00,,---,0.00,VWS V14.00,2013-09-22 20:06:00,
2013-09-22 16:09:00,59.8,43.1,29.91,NNE,16,8.0,10.0,54,0.00,,---,0.00,VWS V14.00,2013-09-22 20:09:00,
2013-09-22 16:10:00,59.6,43.0,29.91,NNE,17,9.0,10.0,54,0.00,,---,0.00,VWS V14.00,2013-09-22 20:10:00,
2013-09-22 16:11:00,59.5,41.9,29.91,NNE,13,7.0,10.0,52,0.00,,---,0.00,VWS V14.00,2013-09-22 20:11:00,
2013-09-22 16:14:00,59.0,42.4,29.91,North,0,4.0,11.0,54,0.00,,---,0.00,VWS V14.00,2013-09-22 20:14:00,
2013-09-22 16:15:00,59.0,42.9,29.92,North,354,2.0,11.0,55,0.00,,---,0.00,VWS V14.00,2013-09-22 20:15:00,
2013-09-22 16:16:00,59.0,42.9,29.92,NNE,17,6.0,11.0,55,0.00,,---,0.00,VWS V14.00,2013-09-22 20:16:00,
2013-09-22 16:19:00,58.7,42.6,29.92,NNE,24,0.0,11.0,55,0.00,,---,0.00,VWS V14.00,2013-09-22 20:19:00,
2013-09-22 16:20:00,58.7,43.1,29.92,NNW,342,0.0,11.0,56,0.00,,---,0.00,VWS V14.00,2013-09-22 20:20:00,
2013-09-22 16:21:00,58.9,44.2,29.92,NW,313,0.0,11.0,58,0.00,,---,0.00,VWS V14.00,2013-09-22 20:21:00,
2013-09-22 16:24:00,59.0,43.8,29.92,NNW,330,6.0,11.0,57,0.00,,---,0.00,VWS V14.00,2013-09-22 20:24:00,
2013-09-22 16:25:00,59.0,43.3,29.92,NW,306,6.0,11.0,56,0.00,,---,0.00,VWS V14.00,2013-09-22 20:25:00,
2013-09-22 16:26:00,59.0,43.3,29.92,NW,322,4.0,11.0,56,0.00,,---,0.00,VWS V14.00,2013-09-22 20:26:00,
2013-09-22 16:30:00,59.2,43.1,29.92,NW,308,2.0,11.0,55,0.00,,---,0.00,VWS V14.00,2013-09-22 20:30:00,
2013-09-22 16:31:00,59.2,43.1,29.92,NNE,27,4.0,11.0,55,0.00,,---,0.00,VWS V14.00,2013-09-22 20:31:00,
2013-09-22 16:35:00,59.2,43.1,29.92,NNE,27,4.0,11.0,55,0.00,,---,0.00,VWS V14.00,2013-09-22 20:35:00,
2013-09-22 16:36:00,59.0,42.4,29.92,NNW,346,2.0,11.0,54,0.00,,---,0.00,VWS V14.00,2013-09-22 20:36:00,
2013-09-22 16:40:00,58.9,42.8,29.92,NW,319,4.0,11.0,55,0.00,,---,0.00,VWS V14.00,2013-09-22 20:40:00,
2013-09-22 16:41:00,58.7,42.6,29.92,NNW,335,0.0,11.0,55,0.00,,---,0.00,VWS V14.00,2013-09-22 20:41:00,
2013-09-22 16:42:00,58.7,43.1,29.92,NE,41,6.0,11.0,56,0.00,,---,0.00,VWS V14.00,2013-09-22 20:42:00,
2013-09-22 16:45:00,58.6,42.5,29.92,NNE,20,9.0,11.0,55,0.00,,---,0.00,VWS V14.00,2013-09-22 20:45:00,
2013-09-22 16:46:00,58.6,42.5,29.92,NNE,27,4.0,11.0,55,0.00,,---,0.00,VWS V14.00,2013-09-22 20:46:00,
2013-09-22 16:47:00,58.4,42.3,29.92,NNE,16,8.0,11.0,55,0.00,,---,0.00,VWS V14.00,2013-09-22 20:47:00,
2013-09-22 16:50:00,58.4,42.8,29.92,East,88,8.0,11.0,56,0.00,,---,0.00,VWS V14.00,2013-09-22 20:50:00,
2013-09-22 16:51:00,58.3,42.7,29.92,North,0,10.0,11.0,56,0.00,,---,0.00,VWS V14.00,2013-09-22 20:51:00,
2013-09-22 16:52:00,58.3,42.7,29.92,North,0,2.0,11.0,56,0.00,,---,0.00,VWS V14.00,2013-09-22 20:52:00,
2013-09-22 16:55:00,58.3,42.2,29.92,NE,37,8.0,11.0,55,0.00,,---,0.00,VWS V14.00,2013-09-22 20:55:00,
2013-09-22 16:56:00,58.1,42.0,29.92,NNE,30,4.0,11.0,55,0.00,,---,0.00,VWS V14.00,2013-09-22 20:56:00,
2013-09-22 16:57:00,58.1,42.0,29.92,NE,37,7.0,11.0,55,0.00,,---,0.00,VWS V14.00,2013-09-22 20:57:00,
2013-09-22 17:00:00,58.0,42.4,29.92,North,7,6.0,11.0,56,0.00,,---,0.00,VWS V14.00,2013-09-22 21:00:00,
2013-09-22 17:01:00,58.0,42.9,29.92,North,3,7.0,9.0,57,0.00,,---,0.00,VWS V14.00,2013-09-22 21:01:00,
2013-09-22 17:02:00,58.0,42.9,29.92,NNE,17,4.0,9.0,57,0.00,,---,0.00,VWS V14.00,2013-09-22 21:02:00,
2013-09-22 17:05:00,58.0,41.9,29.92,NE,34,0.0,9.0,55,0.00,,---,0.00,VWS V14.00,2013-09-22 21:05:00,
2013-09-22 17:07:00,58.3,43.2,29.92,North,350,0.0,9.0,57,0.00,,---,0.00,VWS V14.00,2013-09-22 21:07:00,
2013-09-22 17:08:00,58.3,42.7,29.92,NW,318,0.0,9.0,56,0.00,,---,0.00,VWS V14.00,2013-09-22 21:08:00,
2013-09-22 17:10:00,58.9,44.6,29.92,West,278,6.0,9.0,59,0.00,,---,0.00,VWS V14.00,2013-09-22 21:10:00,
2013-09-22 17:12:00,59.0,44.3,29.92,North,0,0.0,9.0,58,0.00,,---,0.00,VWS V14.00,2013-09-22 21:12:00,
2013-09-22 17:13:00,59.0,43.8,29.92,NNW,347,0.0,9.0,57,0.00,,---,0.00,VWS V14.00,2013-09-22 21:13:00,
2013-09-22 17:15:00,59.3,43.6,29.92,NW,305,0.0,9.0,56,0.00,,---,0.00,VWS V14.00,2013-09-22 21:15:00,
2013-09-22 17:17:00,59.5,43.3,29.92,NNW,329,9.0,9.0,55,0.00,,---,0.00,VWS V14.00,2013-09-22 21:17:00,
2013-09-22 17:18:00,59.6,43.4,29.92,North,357,8.0,11.0,55,0.00,,---,0.00,VWS V14.00,2013-09-22 21:18:00,
2013-09-22 17:20:00,59.6,42.5,29.92,North,0,4.0,11.0,53,0.00,,---,0.00,VWS V14.00,2013-09-22 21:20:00,
2013-09-22 17:22:00,59.5,42.4,29.92,NNE,16,6.0,11.0,53,0.00,,---,0.00,VWS V14.00,2013-09-22 21:22:00,
2013-09-22 17:23:00,59.3,42.2,29.92,North,350,4.0,11.0,53,0.00,,---,0.00,VWS V14.00,2013-09-22 21:23:00,
2013-09-22 17:25:00,58.9,41.8,29.92,NNE,17,6.0,11.0,53,0.00,,---,0.00,VWS V14.00,2013-09-22 21:25:00,
2013-09-22 17:27:00,58.4,41.8,29.92,NNE,30,4.0,11.0,54,0.00,,---,0.00,VWS V14.00,2013-09-22 21:27:00,
2013-09-22 17:28:00,58.1,41.6,29.92,NNE,23,2.0,11.0,54,0.00,,---,0.00,VWS V14.00,2013-09-22 21:28:00,
2013-09-22 17:30:00,57.8,41.8,29.92,NNE,13,6.0,11.0,55,0.00,,---,0.00,VWS V14.00,2013-09-22 21:30:00,
2013-09-22 17:32:00,57.5,41.5,29.92,NNE,20,2.0,11.0,55,0.00,,---,0.00,VWS V14.00,2013-09-22 21:32:00,
2013-09-22 17:34:00,57.2,41.2,29.92,WNW,302,6.0,11.0,55,0.00,,---,0.00,VWS V14.00,2013-09-22 21:34:00,
2013-09-22 17:35:00,57.0,41.5,29.92,North,6,2.0,11.0,56,0.00,,---,0.00,VWS V14.00,2013-09-22 21:35:00,
2013-09-22 17:37:00,56.9,41.4,29.92,North,0,1.0,11.0,56,0.00,,---,0.00,VWS V14.00,2013-09-22 21:37:00,
2013-09-22 17:39:00,56.7,41.2,29.92,North,6,6.0,11.0,56,0.00,,---,0.00,VWS V14.00,2013-09-22 21:39:00,
2013-09-22 17:40:00,56.7,41.2,29.92,North,3,0.0,11.0,56,0.00,,---,0.00,VWS V14.00,2013-09-22 21:40:00,
2013-09-22 17:42:00,56.6,41.1,29.92,North,6,0.0,11.0,56,0.00,,---,0.00,VWS V14.00,2013-09-22 21:42:00,
2013-09-22 17:43:00,56.6,41.1,29.92,North,6,0.0,11.0,56,0.00,,---,0.00,VWS V14.00,2013-09-22 21:43:00,
2013-09-22 17:44:00,56.6,41.6,29.92,NW,316,4.0,11.0,57,0.00,,---,0.00,VWS V14.00,2013-09-22 21:44:00,
2013-09-22 17:45:00,56.6,42.0,29.92,North,0,4.0,11.0,58,0.00,,---,0.00,VWS V14.00,2013-09-22 21:45:00,
2013-09-22 17:48:00,56.5,41.9,29.92,North,0,0.0,11.0,58,0.00,,---,0.00,VWS V14.00,2013-09-22 21:48:00,
2013-09-22 17:49:00,56.6,42.5,29.92,NW,305,6.0,11.0,59,0.00,,---,0.00,VWS V14.00,2013-09-22 21:49:00,
2013-09-22 17:51:00,56.6,42.9,29.92,WNW,296,4.0,11.0,60,0.00,,---,0.00,VWS V14.00,2013-09-22 21:51:00,
2013-09-22 17:53:00,56.6,42.9,29.92,NW,323,9.0,11.0,60,0.00,,---,0.00,VWS V14.00,2013-09-22 21:53:00,
2013-09-22 17:54:00,56.6,42.9,29.92,North,0,2.0,11.0,60,0.00,,---,0.00,VWS V14.00,2013-09-22 21:54:00,
2013-09-22 17:56:00,56.6,42.5,29.92,NNE,17,7.0,11.0,59,0.00,,---,0.00,VWS V14.00,2013-09-22 21:56:00,
2013-09-22 17:58:00,56.6,42.0,29.92,NNE,20,7.0,11.0,58,0.00,,---,0.00,VWS V14.00,2013-09-22 21:58:00,
2013-09-22 17:59:00,56.6,42.0,29.92,North,6,6.0,11.0,58,0.00,,---,0.00,VWS V14.00,2013-09-22 21:59:00,
2013-09-22 18:00:00,56.6,42.0,29.92,North,356,6.0,11.0,58,0.00,,---,0.00,VWS V14.00,2013-09-22 22:00:00,
2013-09-22 18:01:00,56.6,42.0,29.92,North,0,2.0,11.0,58,0.00,,---,0.00,VWS V14.00,2013-09-22 22:01:00,
2013-09-22 18:04:00,56.7,42.1,29.92,North,0,4.0,10.0,58,0.00,,---,0.00,VWS V14.00,2013-09-22 22:04:00,
2013-09-22 18:05:00,56.7,42.1,29.92,North,0,6.0,10.0,58,0.00,,---,0.00,VWS V14.00,2013-09-22 22:05:00,
2013-09-22 18:06:00,56.7,41.7,29.92,North,0,4.0,10.0,57,0.00,,---,0.00,VWS V14.00,2013-09-22 22:06:00,
2013-09-22 18:09:00,56.6,41.6,29.92,NNE,24,7.0,10.0,57,0.00,,---,0.00,VWS V14.00,2013-09-22 22:09:00,
2013-09-22 18:10:00,56.6,41.6,29.92,North,6,4.0,10.0,57,0.00,,---,0.00,VWS V14.00,2013-09-22 22:10:00,
2013-09-22 18:11:00,56.5,41.5,29.92,NNE,30,0.0,10.0,57,0.00,,---,0.00,VWS V14.00,2013-09-22 22:11:00,
2013-09-22 18:14:00,56.6,42.0,29.92,NNE,30,0.0,10.0,58,0.00,,---,0.00,VWS V14.00,2013-09-22 22:14:00,
2013-09-22 18:15:00,56.6,42.9,29.93,NNW,329,0.0,10.0,60,0.00,,---,0.00,VWS V14.00,2013-09-22 22:15:00,
2013-09-22 18:16:00,56.7,43.0,29.93,NW,326,0.0,10.0,60,0.00,,---,0.00,VWS V14.00,2013-09-22 22:16:00,
2013-09-22 18:19:00,56.9,42.7,29.93,NNE,13,4.0,10.0,59,0.00,,---,0.00,VWS V14.00,2013-09-22 22:19:00,
2013-09-22 18:20:00,56.9,41.8,29.93,NNE,17,0.0,10.0,57,0.00,,---,0.00,VWS V14.00,2013-09-22 22:20:00,
2013-09-22 18:21:00,56.9,41.8,29.93,NNE,17,0.0,10.0,57,0.00,,---,0.00,VWS V14.00,2013-09-22 22:21:00,
2013-09-22 18:24:00,57.0,41.9,29.93,ENE,75,0.0,10.0,57,0.00,,---,0.00,VWS V14.00,2013-09-22 22:24:00,
2013-09-22 18:25:00,57.0,41.9,29.93,NNE,20,2.0,10.0,57,0.00,,---,0.00,VWS V14.00,2013-09-22 22:25:00,
2013-09-22 18:26:00,57.0,41.9,29.93,ENE,78,2.0,10.0,57,0.00,,---,0.00,VWS V14.00,2013-09-22 22:26:00,
2013-09-22 18:29:00,57.0,41.9,29.93,NE,55,0.0,10.0,57,0.00,,---,0.00,VWS V14.00,2013-09-22 22:29:00,
2013-09-22 18:30:00,56.9,41.8,29.93,NNE,20,10.0,10.0,57,0.00,,---,0.00,VWS V14.00,2013-09-22 22:30:00,
2013-09-22 18:31:00,56.9,41.8,29.93,NNE,24,1.0,10.0,57,0.00,,---,0.00,VWS V14.00,2013-09-22 22:31:00,
2013-09-22 18:34:00,56.7,42.1,29.93,NNW,342,2.0,10.0,58,0.00,,---,0.00,VWS V14.00,2013-09-22 22:34:00,
2013-09-22 18:35:00,56.7,42.1,29.93,NNW,343,0.0,10.0,58,0.00,,---,0.00,VWS V14.00,2013-09-22 22:35:00,
2013-09-22 18:36:00,56.7,42.1,29.93,NNW,346,1.0,10.0,58,0.00,,---,0.00,VWS V14.00,2013-09-22 22:36:00,
2013-09-22 18:39:00,56.6,42.0,29.93,North,0,1.0,10.0,58,0.00,,---,0.00,VWS V14.00,2013-09-22 22:39:00,
2013-09-22 18:40:00,56.6,42.0,29.93,North,3,6.0,10.0,58,0.00,,---,0.00,VWS V14.00,2013-09-22 22:40:00,
2013-09-22 18:41:00,56.5,41.9,29.93,NNE,20,2.0,10.0,58,0.00,,---,0.00,VWS V14.00,2013-09-22 22:41:00,
2013-09-22 18:42:00,56.5,41.9,29.93,NNE,16,2.0,10.0,58,0.00,,---,0.00,VWS V14.00,2013-09-22 22:42:00,
2013-09-22 18:44:00,56.3,41.7,29.93,NNW,336,4.0,10.0,58,0.00,,---,0.00,VWS V14.00,2013-09-22 22:44:00,
2013-09-22 18:45:00,56.3,41.7,29.93,NNW,337,1.0,10.0,58,0.00,,---,0.00,VWS V14.00,2013-09-22 22:45:00,
2013-09-22 18:46:00,56.3,41.7,29.94,NNW,337,0.0,10.0,58,0.00,,---,0.00,VWS V14.00,2013-09-22 22:46:00,
2013-09-22 18:47:00,56.2,41.6,29.94,NNW,347,0.0,10.0,58,0.00,,---,0.00,VWS V14.00,2013-09-22 22:47:00,
2013-09-22 18:49:00,56.2,42.1,29.94,North,0,1.0,10.0,59,0.00,,---,0.00,VWS V14.00,2013-09-22 22:49:00,
2013-09-22 18:50:00,56.2,42.1,29.94,North,0,2.0,10.0,59,0.00,,---,0.00,VWS V14.00,2013-09-22 22:50:00,
2013-09-22 18:51:00,56.0,41.9,29.94,North,10,2.0,10.0,59,0.00,,---,0.00,VWS V14.00,2013-09-22 22:51:00,
2013-09-22 18:52:00,56.0,41.9,29.94,North,10,0.0,10.0,59,0.00,,---,0.00,VWS V14.00,2013-09-22 22:52:00,
2013-09-22 18:54:00,55.9,41.8,29.94,North,6,0.0,10.0,59,0.00,,---,0.00,VWS V14.00,2013-09-22 22:54:00,
2013-09-22 18:55:00,55.7,42.0,29.94,North,6,0.0,10.0,60,0.00,,---,0.00,VWS V14.00,2013-09-22 22:55:00,
2013-09-22 18:56:00,55.7,42.0,29.94,North,6,0.0,10.0,60,0.00,,---,0.00,VWS V14.00,2013-09-22 22:56:00,
2013-09-22 18:57:00,55.7,42.0,29.94,North,0,0.0,10.0,60,0.00,,---,0.00,VWS V14.00,2013-09-22 22:57:00,
2013-09-22 18:59:00,55.6,42.0,29.94,North,0,0.0,10.0,60,0.00,,---,0.00,VWS V14.00,2013-09-22 22:59:00,
2013-09-22 19:00:00,55.6,42.4,29.94,North,0,0.0,10.0,61,0.00,,---,0.00,VWS V14.00,2013-09-22 23:00:00,
2013-09-22 19:01:00,55.6,42.4,29.94,North,354,0.0,0.0,61,0.00,,---,0.00,VWS V14.00,2013-09-22 23:01:00,
2013-09-22 19:02:00,55.4,42.2,29.94,North,0,0.0,0.0,61,0.00,,---,0.00,VWS V14.00,2013-09-22 23:02:00,
2013-09-22 19:04:00,55.3,42.1,29.94,North,0,0.0,0.0,61,0.00,,---,0.00,VWS V14.00,2013-09-22 23:04:00,
2013-09-22 19:05:00,55.3,42.1,29.94,North,354,0.0,0.0,61,0.00,,---,0.00,VWS V14.00,2013-09-22 23:05:00,
2013-09-22 19:06:00,55.1,41.9,29.94,North,357,0.0,0.0,61,0.00,,---,0.00,VWS V14.00,2013-09-22 23:06:00,
2013-09-22 19:07:00,55.1,41.9,29.94,North,357,0.0,0.0,61,0.00,,---,0.00,VWS V14.00,2013-09-22 23:07:00,
2013-09-22 19:10:00,55.0,42.2,29.94,North,0,0.0,0.0,62,0.00,,---,0.00,VWS V14.00,2013-09-22 23:10:00,
2013-09-22 19:11:00,55.0,42.2,29.94,North,357,0.0,4.0,62,0.00,,---,0.00,VWS V14.00,2013-09-22 23:11:00,
2013-09-22 19:12:00,55.0,42.2,29.94,North,0,0.0,4.0,62,0.00,,---,0.00,VWS V14.00,2013-09-22 23:12:00,
2013-09-22 19:15:00,55.0,42.2,29.94,North,357,0.0,4.0,62,0.00,,---,0.00,VWS V14.00,2013-09-22 23:15:00,
2013-09-22 19:17:00,54.8,42.0,29.94,North,0,2.0,4.0,62,0.00,,---,0.00,VWS V14.00,2013-09-22 23:17:00,
2013-09-22 19:20:00,54.7,42.4,29.94,North,0,2.0,4.0,63,0.00,,---,0.00,VWS V14.00,2013-09-22 23:20:00,
2013-09-22 19:22:00,54.7,42.4,29.94,North,0,0.0,4.0,63,0.00,,---,0.00,VWS V14.00,2013-09-22 23:22:00,
2013-09-22 19:25:00,54.5,42.2,29.94,North,0,0.0,4.0,63,0.00,,---,0.00,VWS V14.00,2013-09-22 23:25:00,
2013-09-22 19:27:00,54.4,42.1,29.94,North,0,0.0,4.0,63,0.00,,---,0.00,VWS V14.00,2013-09-22 23:27:00,
2013-09-22 19:30:00,54.2,42.3,29.94,NNE,16,0.0,4.0,64,0.00,,---,0.00,VWS V14.00,2013-09-22 23:30:00,
2013-09-22 19:31:00,54.2,42.3,29.94,NNE,16,0.0,4.0,64,0.00,,---,0.00,VWS V14.00,2013-09-22 23:31:00,
2013-09-22 19:32:00,54.2,42.3,29.94,NNW,347,2.0,4.0,64,0.00,,---,0.00,VWS V14.00,2013-09-22 23:32:00,
2013-09-22 19:33:00,54.1,42.2,29.94,NE,40,4.0,6.0,64,0.00,,---,0.00,VWS V14.00,2013-09-22 23:33:00,
2013-09-22 19:36:00,53.9,42.4,29.94,NE,48,0.0,6.0,65,0.00,,---,0.00,VWS V14.00,2013-09-22 23:36:00,
2013-09-22 19:37:00,53.8,42.3,29.94,NE,55,0.0,6.0,65,0.00,,---,0.00,VWS V14.00,2013-09-22 23:37:00,
2013-09-22 19:38:00,53.8,42.3,29.94,ENE,61,0.0,6.0,65,0.00,,---,0.00,VWS V14.00,2013-09-22 23:38:00,
2013-09-22 19:41:00,53.6,42.1,29.94,NE,37,0.0,6.0,65,0.00,,---,0.00,VWS V14.00,2013-09-22 23:41:00,
2013-09-22 19:42:00,53.5,42.0,29.94,NE,34,0.0,6.0,65,0.00,,---,0.00,VWS V14.00,2013-09-22 23:42:00,
2013-09-22 19:43:00,53.5,42.0,29.94,NE,41,0.0,6.0,65,0.00,,---,0.00,VWS V14.00,2013-09-22 23:43:00,
2013-09-22 19:46:00,53.3,41.8,29.95,NNE,31,4.0,6.0,65,0.00,,---,0.00,VWS V14.00,2013-09-22 23:46:00,
2013-09-22 19:47:00,53.3,41.8,29.95,NNE,31,0.0,6.0,65,0.00,,---,0.00,VWS V14.00,2013-09-22 23:47:00,
2013-09-22 19:48:00,53.3,41.8,29.95,NNE,31,0.0,6.0,65,0.00,,---,0.00,VWS V14.00,2013-09-22 23:48:00,
2013-09-22 19:51:00,53.2,42.2,29.95,NNE,17,0.0,6.0,66,0.00,,---,0.00,VWS V14.00,2013-09-22 23:51:00,
2013-09-22 19:52:00,53.2,42.2,29.95,NNE,17,0.0,6.0,66,0.00,,---,0.00,VWS V14.00,2013-09-22 23:52:00,
2013-09-22 19:53:00,53.2,42.2,29.95,NNE,17,0.0,6.0,66,0.00,,---,0.00,VWS V14.00,2013-09-22 23:53:00,
2013-09-22 19:56:00,53.2,42.2,29.95,NNE,17,0.0,6.0,66,0.00,,---,0.00,VWS V14.00,2013-09-22 23:56:00,
2013-09-22 19:57:00,53.2,42.2,29.95,NNE,17,0.0,6.0,66,0.00,,---,0.00,VWS V14.00,2013-09-22 23:57:00,
2013-09-22 19:58:00,53.1,42.1,29.95,NNE,17,0.0,6.0,66,0.00,,---,0.00,VWS V14.00,2013-09-22 23:58:00,
2013-09-22 20:01:00,53.1,42.1,29.95,NNE,17,0.0,0.0,66,0.00,,---,0.00,VWS V14.00,2013-09-23 00:01:00,
2013-09-22 20:02:00,53.1,42.1,29.95,NNE,17,0.0,0.0,66,0.00,,---,0.00,VWS V14.00,2013-09-23 00:02:00,
2013-09-22 20:04:00,52.9,41.9,29.95,NNE,17,0.0,0.0,66,0.00,,---,0.00,VWS V14.00,2013-09-23 00:04:00,
2013-09-22 20:07:00,52.9,42.3,29.95,NNE,13,0.0,0.0,67,0.00,,---,0.00,VWS V14.00,2013-09-23 00:07:00,
2013-09-22 20:08:00,52.8,42.2,29.95,NNE,13,0.0,0.0,67,0.00,,---,0.00,VWS V14.00,2013-09-23 00:08:00,
2013-09-22 20:10:00,52.8,42.2,29.95,NNE,13,0.0,0.0,67,0.00,,---,0.00,VWS V14.00,2013-09-23 00:10:00,
2013-09-22 20:12:00,52.6,42.3,29.95,NNE,13,0.0,0.0,68,0.00,,---,0.00,VWS V14.00,2013-09-23 00:12:00,
2013-09-22 20:13:00,52.6,42.3,29.95,NNE,13,0.0,0.0,68,0.00,,---,0.00,VWS V14.00,2013-09-23 00:13:00,
2013-09-22 20:15:00,52.5,42.3,29.96,North,6,0.0,0.0,68,0.00,,---,0.00,VWS V14.00,2013-09-23 00:15:00,
2013-09-22 20:17:00,52.3,42.5,29.96,North,6,0.0,0.0,69,0.00,,---,0.00,VWS V14.00,2013-09-23 00:17:00,
2013-09-22 20:18:00,52.3,42.5,29.96,North,7,0.0,0.0,69,0.00,,---,0.00,VWS V14.00,2013-09-23 00:18:00,
2013-09-22 20:20:00,52.2,42.0,29.96,North,10,0.0,0.0,68,0.00,,---,0.00,VWS V14.00,2013-09-23 00:20:00,
2013-09-22 20:22:00,52.0,41.8,29.96,North,0,0.0,0.0,68,0.00,,---,0.00,VWS V14.00,2013-09-23 00:22:00,
2013-09-22 20:23:00,52.0,42.2,29.96,North,0,0.0,0.0,69,0.00,,---,0.00,VWS V14.00,2013-09-23 00:23:00,
2013-09-22 20:25:00,51.9,42.1,29.96,North,0,0.0,0.0,69,0.00,,---,0.00,VWS V14.00,2013-09-23 00:25:00,
2013-09-22 20:27:00,51.7,41.9,29.96,NNE,23,0.0,0.0,69,0.00,,---,0.00,VWS V14.00,2013-09-23 00:27:00,
2013-09-22 20:28:00,51.7,41.9,29.96,NNE,23,0.0,0.0,69,0.00,,---,0.00,VWS V14.00,2013-09-23 00:28:00,
2013-09-22 20:30:00,51.7,41.9,29.96,NNE,23,0.0,0.0,69,0.00,,---,0.00,VWS V14.00,2013-09-23 00:30:00,
2013-09-22 20:32:00,51.6,41.8,29.96,NNE,23,0.0,0.0,69,0.00,,---,0.00,VWS V14.00,2013-09-23 00:32:00,
2013-09-22 20:33:00,51.6,41.8,29.96,NNE,23,0.0,0.0,69,0.00,,---,0.00,VWS V14.00,2013-09-23 00:33:00,
2013-09-22 20:35:00,51.4,41.6,29.96,NNE,23,0.0,0.0,69,0.00,,---,0.00,VWS V14.00,2013-09-23 00:35:00,
2013-09-22 20:37:00,51.4,42.0,29.96,NNE,24,0.0,0.0,70,0.00,,---,0.00,VWS V14.00,2013-09-23 00:37:00,
2013-09-22 20:38:00,51.3,41.9,29.96,NNE,24,0.0,0.0,70,0.00,,---,0.00,VWS V14.00,2013-09-23 00:38:00,
2013-09-22 20:40:00,51.3,41.9,29.96,NNE,24,0.0,0.0,70,0.00,,---,0.00,VWS V14.00,2013-09-23 00:40:00,
2013-09-22 20:42:00,51.1,41.7,29.96,NNE,24,0.0,0.0,70,0.00,,---,0.00,VWS V14.00,2013-09-23 00:42:00,
2013-09-22 20:43:00,51.1,42.0,29.96,NNE,24,0.0,0.0,71,0.00,,---,0.00,VWS V14.00,2013-09-23 00:43:00,
2013-09-22 20:45:00,51.0,41.9,29.97,NNE,24,0.0,0.0,71,0.00,,---,0.00,VWS V14.00,2013-09-23 00:45:00,
2013-09-22 20:47:00,50.8,41.8,29.97,NNE,24,0.0,0.0,71,0.00,,---,0.00,VWS V14.00,2013-09-23 00:47:00,
2013-09-22 20:48:00,50.8,41.8,29.97,NNE,24,0.0,0.0,71,0.00,,---,0.00,VWS V14.00,2013-09-23 00:48:00,
2013-09-22 20:51:00,50.7,41.7,29.97,NNE,24,0.0,0.0,71,0.00,,---,0.00,VWS V14.00,2013-09-23 00:51:00,
2013-09-22 20:52:00,50.5,41.5,29.97,NNE,24,0.0,0.0,71,0.00,,---,0.00,VWS V14.00,2013-09-23 00:52:00,
2013-09-22 20:53:00,50.4,41.4,29.97,NNE,24,0.0,0.0,71,0.00,,---,0.00,VWS V14.00,2013-09-23 00:53:00,
2013-09-22 20:56:00,50.2,41.5,29.97,NNE,24,0.0,0.0,72,0.00,,---,0.00,VWS V14.00,2013-09-23 00:56:00,
2013-09-22 20:58:00,50.2,41.5,29.97,NNE,24,0.0,0.0,72,0.00,,---,0.00,VWS V14.00,2013-09-23 00:58:00,
2013-09-22 20:59:00,50.1,41.4,29.97,NNE,24,0.0,0.0,72,0.00,,---,0.00,VWS V14.00,2013-09-23 00:59:00,
2013-09-22 21:01:00,49.9,41.2,29.97,NNE,24,0.0,0.0,72,0.00,,---,0.00,VWS V14.00,2013-09-23 01:01:00,
2013-09-22 21:03:00,49.8,41.2,29.97,NNE,24,0.0,0.0,72,0.00,,---,0.00,VWS V14.00,2013-09-23 01:03:00,
2013-09-22 21:04:00,49.8,41.2,29.97,NNE,24,0.0,0.0,72,0.00,,---,0.00,VWS V14.00,2013-09-23 01:04:00,
2013-09-22 21:07:00,49.6,41.0,29.97,NNE,24,0.0,0.0,72,0.00,,---,0.00,VWS V14.00,2013-09-23 01:07:00,
2013-09-22 21:09:00,49.6,41.3,29.97,NNE,24,0.0,0.0,73,0.00,,---,0.00,VWS V14.00,2013-09-23 01:09:00,
2013-09-22 21:12:00,49.4,41.1,29.97,NNE,24,0.0,0.0,73,0.00,,---,0.00,VWS V14.00,2013-09-23 01:12:00,
2013-09-22 21:14:00,49.4,41.1,29.97,NNE,24,0.0,0.0,73,0.00,,---,0.00,VWS V14.00,2013-09-23 01:14:00,
2013-09-22 21:17:00,49.1,41.2,29.97,NNE,24,0.0,0.0,74,0.00,,---,0.00,VWS V14.00,2013-09-23 01:17:00,
2013-09-22 21:19:00,48.9,41.0,29.97,NNE,24,0.0,0.0,74,0.00,,---,0.00,VWS V14.00,2013-09-23 01:19:00,
2013-09-22 21:22:00,48.8,40.9,29.97,NNE,24,0.0,0.0,74,0.00,,---,0.00,VWS V14.00,2013-09-23 01:22:00,
2013-09-22 21:24:00,48.6,41.0,29.97,NNE,24,0.0,0.0,75,0.00,,---,0.00,VWS V14.00,2013-09-23 01:24:00,
2013-09-22 21:27:00,48.5,41.0,29.97,NNE,20,0.0,0.0,75,0.00,,---,0.00,VWS V14.00,2013-09-23 01:27:00,
2013-09-22 21:29:00,48.3,40.8,29.97,NNE,24,0.0,0.0,75,0.00,,---,0.00,VWS V14.00,2013-09-23 01:29:00,
2013-09-22 21:30:00,48.3,41.1,29.97,NNE,24,0.0,0.0,76,0.00,,---,0.00,VWS V14.00,2013-09-23 01:30:00,
2013-09-22 21:32:00,48.2,41.0,29.98,NNE,24,0.0,0.0,76,0.00,,---,0.00,VWS V14.00,2013-09-23 01:32:00,
2013-09-22 21:34:00,48.0,41.2,29.98,NNE,24,0.0,0.0,77,0.00,,---,0.00,VWS V14.00,2013-09-23 01:34:00,
2013-09-22 21:35:00,47.9,41.0,29.98,NNE,24,0.0,0.0,77,0.00,,---,0.00,VWS V14.00,2013-09-23 01:35:00,
2013-09-22 21:37:00,47.7,40.8,29.98,NNE,24,0.0,0.0,77,0.00,,---,0.00,VWS V14.00,2013-09-23 01:37:00,
2013-09-22 21:39:00,47.7,40.8,29.98,NNE,24,0.0,0.0,77,0.00,,---,0.00,VWS V14.00,2013-09-23 01:39:00,
2013-09-22 21:40:00,47.6,41.1,29.98,NNE,24,0.0,0.0,78,0.00,,---,0.00,VWS V14.00,2013-09-23 01:40:00,
2013-09-22 21:42:00,47.6,41.1,29.98,NNE,24,0.0,0.0,78,0.00,,---,0.00,VWS V14.00,2013-09-23 01:42:00,
2013-09-22 21:44:00,47.4,40.9,29.98,NNE,24,0.0,0.0,78,0.00,,---,0.00,VWS V14.00,2013-09-23 01:44:00,
2013-09-22 21:45:00,47.3,41.1,29.98,NNE,24,0.0,0.0,79,0.00,,---,0.00,VWS V14.00,2013-09-23 01:45:00,
2013-09-22 21:48:00,47.3,41.1,29.98,NNE,24,0.0,0.0,79,0.00,,---,0.00,VWS V14.00,2013-09-23 01:48:00,
2013-09-22 21:49:00,47.1,40.9,29.98,NNE,24,0.0,0.0,79,0.00,,---,0.00,VWS V14.00,2013-09-23 01:49:00,
2013-09-22 21:50:00,47.1,40.9,29.98,NNE,24,0.0,0.0,79,0.00,,---,0.00,VWS V14.00,2013-09-23 01:50:00,
2013-09-22 21:51:00,47.0,40.8,29.98,NNE,24,0.0,0.0,79,0.00,,---,0.00,VWS V14.00,2013-09-23 01:51:00,
2013-09-22 21:53:00,47.0,40.8,29.98,NNE,24,0.0,0.0,79,0.00,,---,0.00,VWS V14.00,2013-09-23 01:53:00,
2013-09-22 21:54:00,46.8,40.6,29.98,NNE,24,0.0,0.0,79,0.00,,---,0.00,VWS V14.00,2013-09-23 01:54:00,
2013-09-22 21:55:00,46.8,41.0,29.98,NNE,24,0.0,0.0,80,0.00,,---,0.00,VWS V14.00,2013-09-23 01:55:00,
2013-09-22 21:56:00,46.8,41.0,29.98,NNE,24,0.0,0.0,80,0.00,,---,0.00,VWS V14.00,2013-09-23 01:56:00,
2013-09-22 21:59:00,46.7,40.9,29.98,NNE,24,0.0,0.0,80,0.00,,---,0.00,VWS V14.00,2013-09-23 01:59:00,
2013-09-22 22:00:00,46.5,40.7,29.98,NNE,20,0.0,0.0,80,0.00,,---,0.00,VWS V14.00,2013-09-23 02:00:00,
2013-09-22 22:01:00,46.5,40.7,29.98,NNE,24,0.0,0.0,80,0.00,,---,0.00,VWS V14.00,2013-09-23 02:01:00,
2013-09-22 22:04:00,46.4,40.9,29.98,NNE,24,0.0,0.0,81,0.00,,---,0.00,VWS V14.00,2013-09-23 02:04:00,
2013-09-22 22:05:00,46.4,40.9,29.98,NNE,24,0.0,0.0,81,0.00,,---,0.00,VWS V14.00,2013-09-23 02:05:00,
2013-09-22 22:06:00,46.4,40.9,29.98,NNE,24,0.0,0.0,81,0.00,,---,0.00,VWS V14.00,2013-09-23 02:06:00,
2013-09-22 22:09:00,46.2,40.7,29.98,NNE,24,0.0,0.0,81,0.00,,---,0.00,VWS V14.00,2013-09-23 02:09:00,
2013-09-22 22:10:00,46.1,40.6,29.98,NNE,24,0.0,0.0,81,0.00,,---,0.00,VWS V14.00,2013-09-23 02:10:00,
2013-09-22 22:11:00,46.1,40.6,29.98,NNE,24,0.0,0.0,81,0.00,,---,0.00,VWS V14.00,2013-09-23 02:11:00,
2013-09-22 22:14:00,46.0,40.5,29.98,NNE,24,0.0,0.0,81,0.00,,---,0.00,VWS V14.00,2013-09-23 02:14:00,
2013-09-22 22:16:00,46.0,40.8,29.98,NNE,24,0.0,0.0,82,0.00,,---,0.00,VWS V14.00,2013-09-23 02:16:00,
2013-09-22 22:19:00,45.8,40.6,29.98,NNE,24,0.0,0.0,82,0.00,,---,0.00,VWS V14.00,2013-09-23 02:19:00,
2013-09-22 22:21:00,45.7,40.5,29.98,NNE,24,0.0,0.0,82,0.00,,---,0.00,VWS V14.00,2013-09-23 02:21:00,
2013-09-22 22:24:00,45.5,40.3,29.98,NNE,24,0.0,0.0,82,0.00,,---,0.00,VWS V14.00,2013-09-23 02:24:00,
2013-09-22 22:25:00,45.5,40.3,29.98,NNE,24,0.0,0.0,82,0.00,,---,0.00,VWS V14.00,2013-09-23 02:25:00,
2013-09-22 22:26:00,45.5,40.3,29.98,NNE,24,0.0,0.0,82,0.00,,---,0.00,VWS V14.00,2013-09-23 02:26:00,
2013-09-22 22:30:00,45.4,40.5,29.98,NNE,24,0.0,0.0,83,0.00,,---,0.00,VWS V14.00,2013-09-23 02:30:00,
2013-09-22 22:31:00,45.2,40.3,29.98,NNE,24,0.0,0.0,83,0.00,,---,0.00,VWS V14.00,2013-09-23 02:31:00,
2013-09-22 22:32:00,45.2,40.3,29.98,NNE,24,0.0,0.0,83,0.00,,---,0.00,VWS V14.00,2013-09-23 02:32:00,
2013-09-22 22:35:00,45.2,40.3,29.98,NNE,24,0.0,0.0,83,0.00,,---,0.00,VWS V14.00,2013-09-23 02:35:00,
2013-09-22 22:36:00,45.1,40.2,29.98,NNE,24,0.0,0.0,83,0.00,,---,0.00,VWS V14.00,2013-09-23 02:36:00,
2013-09-22 22:37:00,45.1,40.2,29.98,NNE,24,0.0,0.0,83,0.00,,---,0.00,VWS V14.00,2013-09-23 02:37:00,
2013-09-22 22:40:00,44.9,40.1,29.98,NNE,24,0.0,0.0,83,0.00,,---,0.00,VWS V14.00,2013-09-23 02:40:00,
2013-09-22 22:41:00,44.9,40.1,29.98,NNE,24,0.0,0.0,83,0.00,,---,0.00,VWS V14.00,2013-09-23 02:41:00,
2013-09-22 22:42:00,44.9,40.1,29.98,NNE,24,0.0,0.0,83,0.00,,---,0.00,VWS V14.00,2013-09-23 02:42:00,
2013-09-22 22:45:00,44.9,40.4,29.98,NNE,24,0.0,0.0,84,0.00,,---,0.00,VWS V14.00,2013-09-23 02:45:00,
2013-09-22 22:46:00,44.8,40.3,29.98,NNE,24,0.0,0.0,84,0.00,,---,0.00,VWS V14.00,2013-09-23 02:46:00,
2013-09-22 22:47:00,44.8,40.3,29.98,NNE,24,0.0,0.0,84,0.00,,---,0.00,VWS V14.00,2013-09-23 02:47:00,
2013-09-22 22:50:00,44.8,40.3,29.98,NNE,24,0.0,0.0,84,0.00,,---,0.00,VWS V14.00,2013-09-23 02:50:00,
2013-09-22 22:51:00,44.8,40.3,29.98,NNE,24,0.0,0.0,84,0.00,,---,0.00,VWS V14.00,2013-09-23 02:51:00,
2013-09-22 22:52:00,44.8,40.6,29.98,NNE,24,0.0,0.0,85,0.00,,---,0.00,VWS V14.00,2013-09-23 02:52:00,
2013-09-22 22:55:00,44.6,40.4,29.98,NNE,24,0.0,0.0,85,0.00,,---,0.00,VWS V14.00,2013-09-23 02:55:00,
2013-09-22 22:56:00,44.6,40.4,29.98,NNE,24,0.0,0.0,85,0.00,,---,0.00,VWS V14.00,2013-09-23 02:56:00,
2013-09-22 22:57:00,44.6,40.4,29.98,NNE,24,0.0,0.0,85,0.00,,---,0.00,VWS V14.00,2013-09-23 02:57:00,
2013-09-22 23:00:00,44.5,40.3,29.99,NNE,24,0.0,0.0,85,0.00,,---,0.00,VWS V14.00,2013-09-23 03:00:00,
2013-09-22 23:01:00,44.5,40.3,29.99,NNE,24,0.0,0.0,85,0.00,,---,0.00,VWS V14.00,2013-09-23 03:01:00,
2013-09-22 23:03:00,44.5,40.3,29.99,NNE,24,0.0,0.0,85,0.00,,---,0.00,VWS V14.00,2013-09-23 03:03:00,
2013-09-22 23:05:00,44.3,40.1,29.99,NNE,24,0.0,0.0,85,0.00,,---,0.00,VWS V14.00,2013-09-23 03:05:00,
2013-09-22 23:06:00,44.3,40.1,29.99,NNE,24,0.0,0.0,85,0.00,,---,0.00,VWS V14.00,2013-09-23 03:06:00,
2013-09-22 23:08:00,44.3,40.1,29.99,NNE,24,0.0,0.0,85,0.00,,---,0.00,VWS V14.00,2013-09-23 03:08:00,
2013-09-22 23:10:00,44.2,40.0,29.99,NNE,24,0.0,0.0,85,0.00,,---,0.00,VWS V14.00,2013-09-23 03:10:00,
2013-09-22 23:11:00,44.2,40.0,29.99,NNE,24,0.0,0.0,85,0.00,,---,0.00,VWS V14.00,2013-09-23 03:11:00,
2013-09-22 23:13:00,44.2,40.0,29.99,NNE,24,0.0,0.0,85,0.00,,---,0.00,VWS V14.00,2013-09-23 03:13:00,
2013-09-22 23:16:00,44.1,39.9,30.00,NNE,24,0.0,0.0,85,0.00,,---,0.00,VWS V14.00,2013-09-23 03:16:00,
2013-09-22 23:19:00,43.9,39.7,30.00,NNE,24,0.0,0.0,85,0.00,,---,0.00,VWS V14.00,2013-09-23 03:19:00,
2013-09-22 23:21:00,43.9,39.7,30.00,NNE,24,0.0,0.0,85,0.00,,---,0.00,VWS V14.00,2013-09-23 03:21:00,
2013-09-22 23:24:00,43.8,39.6,30.00,NNE,24,0.0,0.0,85,0.00,,---,0.00,VWS V14.00,2013-09-23 03:24:00,
2013-09-22 23:26:00,43.8,39.6,30.00,NNE,24,0.0,0.0,85,0.00,,---,0.00,VWS V14.00,2013-09-23 03:26:00,
2013-09-22 23:27:00,43.8,39.9,30.00,NNE,24,0.0,0.0,86,0.00,,---,0.00,VWS V14.00,2013-09-23 03:27:00,
2013-09-22 23:29:00,43.6,39.4,30.00,NNE,24,0.0,0.0,85,0.00,,---,0.00,VWS V14.00,2013-09-23 03:29:00,
2013-09-22 23:31:00,43.6,39.4,30.00,NNE,24,0.0,0.0,85,0.00,,---,0.00,VWS V14.00,2013-09-23 03:31:00,
2013-09-22 23:32:00,43.6,39.7,30.00,NNE,24,0.0,0.0,86,0.00,,---,0.00,VWS V14.00,2013-09-23 03:32:00,
2013-09-22 23:34:00,43.5,39.6,30.00,NNE,24,0.0,0.0,86,0.00,,---,0.00,VWS V14.00,2013-09-23 03:34:00,
2013-09-22 23:36:00,43.5,39.6,30.00,NNE,24,0.0,0.0,86,0.00,,---,0.00,VWS V14.00,2013-09-23 03:36:00,
2013-09-22 23:37:00,43.5,39.6,30.00,NNE,24,0.0,0.0,86,0.00,,---,0.00,VWS V14.00,2013-09-23 03:37:00,
2013-09-22 23:39:00,43.3,39.4,30.00,NNE,24,0.0,0.0,86,0.00,,---,0.00,VWS V14.00,2013-09-23 03:39:00,
2013-09-22 23:41:00,43.3,39.4,30.00,NNE,24,0.0,0.0,86,0.00,,---,0.00,VWS V14.00,2013-09-23 03:41:00,
2013-09-22 23:42:00,43.3,39.4,30.00,NNE,24,0.0,0.0,86,0.00,,---,0.00,VWS V14.00,2013-09-23 03:42:00,
2013-09-22 23:45:00,43.3,39.4,30.00,NNE,24,0.0,0.0,86,0.00,,---,0.00,VWS V14.00,2013-09-23 03:45:00,
2013-09-22 23:46:00,43.2,39.3,30.00,NNE,24,0.0,0.0,86,0.00,,---,0.00,VWS V14.00,2013-09-23 03:46:00,
2013-09-22 23:47:00,43.2,39.3,30.00,NNE,24,0.0,0.0,86,0.00,,---,0.00,VWS V14.00,2013-09-23 03:47:00,
2013-09-22 23:50:00,43.2,39.3,30.00,NNE,24,0.0,0.0,86,0.00,,---,0.00,VWS V14.00,2013-09-23 03:50:00,
2013-09-22 23:51:00,43.1,39.2,30.00,NNE,24,0.0,0.0,86,0.00,,---,0.00,VWS V14.00,2013-09-23 03:51:00,
2013-09-22 23:52:00,43.1,39.2,30.00,NNE,24,0.0,0.0,86,0.00,,---,0.00,VWS V14.00,2013-09-23 03:52:00,
2013-09-22 23:55:00,43.1,39.2,30.00,NNE,24,0.0,0.0,86,0.00,,---,0.00,VWS V14.00,2013-09-23 03:55:00,
2013-09-22 23:56:00,43.1,39.2,30.00,NNE,24,0.0,0.0,86,0.00,,---,0.00,VWS V14.00,2013-09-23 03:56:00,
2013-09-22 23:57:00,42.9,39.0,30.00,NNE,24,0.0,0.0,86,0.00,,---,0.00,VWS V14.00,2013-09-23 03:57:00,
2013-09-22 23:58:00,42.9,39.0,30.00,NNE,24,0.0,0.0,86,0.00,,---,0.00,VWS V14.00,2013-09-23 03:58:00,